Observation data for Rotan on 03/24/2019      Previous  Date  Next       Current Mesonet Observations  Soil Data  Daily Summary Page  Observations in Plain Language
KRO1 240500Z 20010KT 14/01 A30 RMK A01 T01430007  RH  039%=      5-min Rain = 0
KRO1 240501Z 20010KT 14/01 A30 RMK A01 T01430007  RH  040%=      5-min Rain = 0
KRO1 240502Z 20010KT 14/01 A30 RMK A01 T01420007  RH  040%=      5-min Rain = 0
KRO1 240503Z 20010KT 14/01 A30 RMK A01 T01430007  RH  040%=      5-min Rain = 0
KRO1 240504Z 20010KT 14/01 A30 RMK A01 T01430007  RH  040%=      5-min Rain = 0
KRO1 240505Z 20010KT 14/01 A30 RMK A01 T01440008  RH  039%=      5-min Rain = 0
KRO1 240506Z 20010KT 14/01 A30 RMK A01 T01430008  RH  040%=      5-min Rain = 0
KRO1 240507Z 20010KT 14/01 A30 RMK A01 T01440008  RH  039%=      5-min Rain = 0
KRO1 240508Z 20009KT 14/01 A30 RMK A01 T01440007  RH  039%=      5-min Rain = 0
KRO1 240509Z 20009KT 14/01 A30 RMK A01 T01440007  RH  039%=      5-min Rain = 0
KRO1 240510Z 20010KT 14/01 A2999 RMK A01 T01440006  RH  039%=      5-min Rain = 0
KRO1 240511Z 19010KT 14/01 A2999 RMK A01 T01440006  RH  039%=      5-min Rain = 0
KRO1 240512Z 19010KT 15/01 A2999 RMK A01 T01450007  RH  039%=      5-min Rain = 0
KRO1 240513Z 19010KT 15/01 A2999 RMK A01 T01450006  RH  039%=      5-min Rain = 0
KRO1 240514Z 19010KT 14/01 A2999 RMK A01 T01440007  RH  039%=      5-min Rain = 0
KRO1 240515Z 19011KT 14/01 A2999 RMK A01 T01440007  RH  039%=      5-min Rain = 0
KRO1 240516Z 19010KT 14/01 A2999 RMK A01 T01430007  RH  039%=      5-min Rain = 0
KRO1 240517Z 19010KT 14/01 A2999 RMK A01 T01440007  RH  039%=      5-min Rain = 0
KRO1 240518Z 19010KT 14/01 A2999 RMK A01 T01430007  RH  039%=      5-min Rain = 0
KRO1 240519Z 19010KT 14/01 A2999 RMK A01 T01430007  RH  039%=      5-min Rain = 0
KRO1 240520Z 19010KT 14/01 A2999 RMK A01 T01440007  RH  039%=      5-min Rain = 0
KRO1 240521Z 20010KT 14/01 A2999 RMK A01 T01440006  RH  039%=      5-min Rain = 0
KRO1 240522Z 20011KT 14/01 A2999 RMK A01 T01440006  RH  039%=      5-min Rain = 0
KRO1 240523Z 20011KT 15/01 A2999 RMK A01 T01450007  RH  039%=      5-min Rain = 0
KRO1 240524Z 20010KT 15/01 A2999 RMK A01 T01450007  RH  039%=      5-min Rain = 0
KRO1 240525Z 20010KT 15/01 A2999 RMK A01 T01450008  RH  039%=      5-min Rain = 0
KRO1 240526Z 20010KT 15/01 A2999 RMK A01 T01450007  RH  039%=      5-min Rain = 0
KRO1 240527Z 20010KT 15/01 A2999 RMK A01 T01450007  RH  039%=      5-min Rain = 0
KRO1 240528Z 20010KT 14/01 A2999 RMK A01 T01440007  RH  039%=      5-min Rain = 0
KRO1 240529Z 20010KT 14/01 A2999 RMK A01 T01440007  RH  039%=      5-min Rain = 0
KRO1 240530Z 20010KT 14/01 A2999 RMK A01 T01440007  RH  039%=      5-min Rain = 0
KRO1 240531Z 20009KT 14/01 A2999 RMK A01 T01420007  RH  040%=      5-min Rain = 0
KRO1 240532Z 20009KT 14/01 A2999 RMK A01 T01400007  RH  040%=      5-min Rain = 0
KRO1 240533Z 20009KT 14/01 A2999 RMK A01 T01380007  RH  041%=      5-min Rain = 0
KRO1 240534Z 20009KT 14/01 A2999 RMK A01 T01360007  RH  041%=      5-min Rain = 0
KRO1 240535Z 20009KT 14/01 A2999 RMK A01 T01350007  RH  042%=      5-min Rain = 0
KRO1 240536Z 20009KT 13/01 A2999 RMK A01 T01340007  RH  042%=      5-min Rain = 0
KRO1 240537Z 20010KT 13/01 A2999 RMK A01 T01340007  RH  042%=      5-min Rain = 0
KRO1 240538Z 20010KT 13/01 A2999 RMK A01 T01340007  RH  042%=      5-min Rain = 0
KRO1 240539Z 20010KT 13/01 A2999 RMK A01 T01340007  RH  042%=      5-min Rain = 0
KRO1 240540Z 20010KT 13/01 A2999 RMK A01 T01340007  RH  042%=      5-min Rain = 0
KRO1 240541Z 20010KT 14/01 A2999 RMK A01 T01350007  RH  042%=      5-min Rain = 0
KRO1 240542Z 20011KT 14/01 A2999 RMK A01 T01360007  RH  041%=      5-min Rain = 0
KRO1 240543Z 20011KT 14/01 A2999 RMK A01 T01360007  RH  041%=      5-min Rain = 0
KRO1 240544Z 20011KT 14/01 A2999 RMK A01 T01360007  RH  041%=      5-min Rain = 0
KRO1 240545Z 20011KT 14/01 A2999 RMK A01 T01360007  RH  041%=      5-min Rain = 0
KRO1 240546Z 20011KT 14/01 A2999 RMK A01 T01370007  RH  041%=      5-min Rain = 0
KRO1 240547Z 20010KT 14/01 A2999 RMK A01 T01370007  RH  041%=      5-min Rain = 0
KRO1 240548Z 20010KT 14/01 A2999 RMK A01 T01370007  RH  041%=      5-min Rain = 0
KRO1 240549Z 20011KT 14/01 A2998 RMK A01 T01370007  RH  041%=      5-min Rain = 0
KRO1 240550Z 20011KT 14/01 A2998 RMK A01 T01370007  RH  041%=      5-min Rain = 0
KRO1 240551Z 20010KT 14/01 A2998 RMK A01 T01370007  RH  041%=      5-min Rain = 0
KRO1 240552Z 20010KT 14/01 A2998 RMK A01 T01360007  RH  041%=      5-min Rain = 0
KRO1 240553Z 20010KT 14/01 A2998 RMK A01 T01360007  RH  041%=      5-min Rain = 0
KRO1 240554Z 20011KT 14/01 A2998 RMK A01 T01350006  RH  041%=      5-min Rain = 0
KRO1 240555Z 20011KT 14/01 A2998 RMK A01 T01350007  RH  041%=      5-min Rain = 0
KRO1 240556Z 20011KT 14/01 A2998 RMK A01 T01360006  RH  041%=      5-min Rain = 0
KRO1 240557Z 20010KT 14/01 A2998 RMK A01 T01360006  RH  041%=      5-min Rain = 0
KRO1 240558Z 20010KT 14/01 A2998 RMK A01 T01360006  RH  041%=      5-min Rain = 0
KRO1 240559Z 20010KT 14/01 A2998 RMK A01 T01370006  RH  041%=      5-min Rain = 0
KRO1 240600Z 20010KT 14/01 A2998 RMK A01 T01360006  RH  041%=      5-min Rain = 0
KRO1 240601Z 20010KT 14/01 A2998 RMK A01 T01360006  RH  041%=      5-min Rain = 0
KRO1 240602Z 20010KT 14/01 A2998 RMK A01 T01360006  RH  041%=      5-min Rain = 0
KRO1 240603Z 20010KT 14/01 A2998 RMK A01 T01360007  RH  041%=      5-min Rain = 0
KRO1 240604Z 20010KT 14/01 A2998 RMK A01 T01350007  RH  041%=      5-min Rain = 0
KRO1 240605Z 20010KT 14/01 A2998 RMK A01 T01350007  RH  041%=      5-min Rain = 0
KRO1 240606Z 20010KT 14/01 A2998 RMK A01 T01350006  RH  041%=      5-min Rain = 0
KRO1 240607Z 20010KT 14/01 A2998 RMK A01 T01350006  RH  041%=      5-min Rain = 0
KRO1 240608Z 20010KT 14/01 A2998 RMK A01 T01360005  RH  041%=      5-min Rain = 0
KRO1 240609Z 20011KT 14/01 A2998 RMK A01 T01370005  RH  041%=      5-min Rain = 0
KRO1 240610Z 20011KT 14/01 A2998 RMK A01 T01380005  RH  040%=      5-min Rain = 0
KRO1 240611Z 20012KT 14/01 A2998 RMK A01 T01390005  RH  040%=      5-min Rain = 0
KRO1 240612Z 20012KT 14/01 A2998 RMK A01 T01390005  RH  040%=      5-min Rain = 0
KRO1 240613Z 20012KT 14/01 A2998 RMK A01 T01400005  RH  040%=      5-min Rain = 0
KRO1 240614Z 20012KT 14/01 A2998 RMK A01 T01400005  RH  040%=      5-min Rain = 0
KRO1 240615Z 20012KT 14/00 A2998 RMK A01 T01400004  RH  040%=      5-min Rain = 0
KRO1 240616Z 20012KT 14/00 A2998 RMK A01 T01400004  RH  039%=      5-min Rain = 0
KRO1 240617Z 20012KT 14/01 A2998 RMK A01 T01400005  RH  039%=      5-min Rain = 0
KRO1 240618Z 20012KT 14/00 A2998 RMK A01 T01400004  RH  039%=      5-min Rain = 0
KRO1 240619Z 20012KT 14/00 A2998 RMK A01 T01390004  RH  040%=      5-min Rain = 0
KRO1 240620Z 20012KT 14/00 A2998 RMK A01 T01390004  RH  040%=      5-min Rain = 0
KRO1 240621Z 20011KT 14/00 A2998 RMK A01 T01390004  RH  040%=      5-min Rain = 0
KRO1 240622Z 20011KT 14/00 A2998 RMK A01 T01390004  RH  040%=      5-min Rain = 0
KRO1 240623Z 20011KT 14/01 A2998 RMK A01 T01390005  RH  040%=      5-min Rain = 0
KRO1 240624Z 20011KT 14/00 A2998 RMK A01 T01390004  RH  040%=      5-min Rain = 0
KRO1 240625Z 20012KT 14/01 A2998 RMK A01 T01390005  RH  040%=      5-min Rain = 0
KRO1 240626Z 20011KT 14/01 A2998 RMK A01 T01390005  RH  040%=      5-min Rain = 0
KRO1 240627Z 20011KT 14/00 A2998 RMK A01 T01390004  RH  040%=      5-min Rain = 0
KRO1 240628Z 20012KT 14/00 A2998 RMK A01 T01400004  RH  039%=      5-min Rain = 0
KRO1 240629Z 20012KT 14/00 A2998 RMK A01 T01400004  RH  039%=      5-min Rain = 0
KRO1 240630Z 20012KT 14/00 A2998 RMK A01 T01400004  RH  039%=      5-min Rain = 0
KRO1 240631Z 20012KT 14/00 A2998 RMK A01 T01400004  RH  039%=      5-min Rain = 0
KRO1 240632Z 20012KT 14/01 A2998 RMK A01 T01400005  RH  040%=      5-min Rain = 0
KRO1 240633Z 20012KT 14/00 A2998 RMK A01 T01390004  RH  040%=      5-min Rain = 0
KRO1 240634Z 20012KT 14/00 A2998 RMK A01 T01390004  RH  040%=      5-min Rain = 0
KRO1 240635Z 20012KT 14/00 A2998 RMK A01 T01390004  RH  040%=      5-min Rain = 0
KRO1 240636Z 20012KT 14/00 A2998 RMK A01 T01390004  RH  040%=      5-min Rain = 0
KRO1 240637Z 20012KT 14/01 A2998 RMK A01 T01390005  RH  040%=      5-min Rain = 0
KRO1 240638Z 20012KT 14/01 A2998 RMK A01 T01390005  RH  040%=      5-min Rain = 0
KRO1 240639Z 20012KT 14/01 A2998 RMK A01 T01380005  RH  040%=      5-min Rain = 0
KRO1 240640Z 20012KT 14/01 A2998 RMK A01 T01370005  RH  040%=      5-min Rain = 0
KRO1 240641Z 20011KT 14/00 A2998 RMK A01 T01370004  RH  040%=      5-min Rain = 0
KRO1 240642Z 20011KT 14/00 A2998 RMK A01 T01370004  RH  040%=      5-min Rain = 0
KRO1 240643Z 20011KT 14/00 A2998 RMK A01 T01370004  RH  040%=      5-min Rain = 0
KRO1 240644Z 20011KT 14/00 A2998 RMK A01 T01370004  RH  040%=      5-min Rain = 0
KRO1 240645Z 20011KT 14/01 A2998 RMK A01 T01370005  RH  040%=      5-min Rain = 0
KRO1 240646Z 20011KT 14/00 A2998 RMK A01 T01360004  RH  041%=      5-min Rain = 0
KRO1 240647Z 20011KT 14/01 A2998 RMK A01 T01360005  RH  041%=      5-min Rain = 0
KRO1 240648Z 20011KT 14/01 A2998 RMK A01 T01350005  RH  041%=      5-min Rain = 0
KRO1 240649Z 20011KT 14/01 A2998 RMK A01 T01350005  RH  041%=      5-min Rain = 0
KRO1 240650Z 20011KT 13/01 A2998 RMK A01 T01340005  RH  041%=      5-min Rain = 0
KRO1 240651Z 20011KT 13/01 A2998 RMK A01 T01340005  RH  041%=      5-min Rain = 0
KRO1 240652Z 20011KT 13/00 A2998 RMK A01 T01340004  RH  041%=      5-min Rain = 0
KRO1 240653Z 20011KT 14/00 A2998 RMK A01 T01350004  RH  041%=      5-min Rain = 0
KRO1 240654Z 20011KT 14/00 A2998 RMK A01 T01360004  RH  040%=      5-min Rain = 0
KRO1 240655Z 20011KT 14/00 A2998 RMK A01 T01360003  RH  040%=      5-min Rain = 0
KRO1 240656Z 20011KT 14/00 A2998 RMK A01 T01360003  RH  040%=      5-min Rain = 0
KRO1 240657Z 20010KT 14/00 A2998 RMK A01 T01350003  RH  040%=      5-min Rain = 0
KRO1 240658Z 20010KT 14/00 A2998 RMK A01 T01350003  RH  040%=      5-min Rain = 0
KRO1 240659Z 20010KT 14/00 A2998 RMK A01 T01350003  RH  040%=      5-min Rain = 0
KRO1 240700Z 20010KT 14/00 A2998 RMK A01 T01350004  RH  041%=      5-min Rain = 0
KRO1 240701Z 20010KT 13/00 A2998 RMK A01 T01340004  RH  041%=      5-min Rain = 0
KRO1 240702Z 20010KT 13/00 A2998 RMK A01 T01330004  RH  041%=      5-min Rain = 0
KRO1 240703Z 20010KT 13/01 A2998 RMK A01 T01330005  RH  041%=      5-min Rain = 0
KRO1 240704Z 20011KT 13/01 A2998 RMK A01 T01320005  RH  042%=      5-min Rain = 0
KRO1 240705Z 20011KT 13/01 A2998 RMK A01 T01330005  RH  042%=      5-min Rain = 0
KRO1 240706Z 19011KT 14/01 A2998 RMK A01 T01350005  RH  041%=      5-min Rain = 0
KRO1 240707Z 19011KT 14/00 A2998 RMK A01 T01360004  RH  041%=      5-min Rain = 0
KRO1 240708Z 19010KT 14/01 A2998 RMK A01 T01360005  RH  041%=      5-min Rain = 0
KRO1 240709Z 19010KT 14/01 A2998 RMK A01 T01360005  RH  041%=      5-min Rain = 0
KRO1 240710Z 20009KT 13/01 A2998 RMK A01 T01340005  RH  041%=      5-min Rain = 0
KRO1 240711Z 20009KT 13/01 A2998 RMK A01 T01320005  RH  042%=      5-min Rain = 0
KRO1 240712Z 20009KT 13/00 A2998 RMK A01 T01310004  RH  042%=      5-min Rain = 0
KRO1 240713Z 19009KT 13/01 A2998 RMK A01 T01310005  RH  042%=      5-min Rain = 0
KRO1 240714Z 19009KT 13/01 A2998 RMK A01 T01300006  RH  043%=      5-min Rain = 0
KRO1 240715Z 19009KT 13/01 A2998 RMK A01 T01290005  RH  043%=      5-min Rain = 0
KRO1 240716Z 19009KT 13/01 A2998 RMK A01 T01300006  RH  043%=      5-min Rain = 0
KRO1 240717Z 18009KT 13/01 A2998 RMK A01 T01310007  RH  043%=      5-min Rain = 0
KRO1 240718Z 18010KT 13/01 A2998 RMK A01 T01310007  RH  043%=      5-min Rain = 0
KRO1 240719Z 18010KT 13/01 A2998 RMK A01 T01310007  RH  043%=      5-min Rain = 0
KRO1 240720Z 18012KT 13/01 A2998 RMK A01 T01310007  RH  043%=      5-min Rain = 0
KRO1 240721Z 18014KT 13/01 A2998 RMK A01 T01300007  RH  043%=      5-min Rain = 0
KRO1 240722Z 18014KT 13/01 A2999 RMK A01 T01300007  RH  043%=      5-min Rain = 0
KRO1 240723Z 18013KT 13/01 A2998 RMK A01 T01300006  RH  043%=      5-min Rain = 0
KRO1 240724Z 18013KT 13/01 A2999 RMK A01 T01300006  RH  043%=      5-min Rain = 0
KRO1 240725Z 18013KT 13/01 A2999 RMK A01 T01290006  RH  043%=      5-min Rain = 0
KRO1 240726Z 18012KT 13/01 A2999 RMK A01 T01280007  RH  044%=      5-min Rain = 0
KRO1 240727Z 18012KT 13/01 A2999 RMK A01 T01260008  RH  044%=      5-min Rain = 0
KRO1 240728Z 18012KT 12/01 A2999 RMK A01 T01240007  RH  045%=      5-min Rain = 0
KRO1 240729Z 18012KT 12/01 A2999 RMK A01 T01230008  RH  045%=      5-min Rain = 0
KRO1 240730Z 18012KT 12/01 A2999 RMK A01 T01220008  RH  045%=      5-min Rain = 0
KRO1 240731Z 18012KT 12/01 A2999 RMK A01 T01220008  RH  046%=      5-min Rain = 0
KRO1 240732Z 19012KT 12/01 A2999 RMK A01 T01210007  RH  046%=      5-min Rain = 0
KRO1 240733Z 19012KT 12/01 A2999 RMK A01 T01220007  RH  045%=      5-min Rain = 0
KRO1 240734Z 19012KT 12/01 A2999 RMK A01 T01230007  RH  045%=      5-min Rain = 0
KRO1 240735Z 19012KT 12/01 A2999 RMK A01 T01240006  RH  044%=      5-min Rain = 0
KRO1 240736Z 19012KT 13/01 A2999 RMK A01 T01260006  RH  044%=      5-min Rain = 0
KRO1 240737Z 19011KT 13/01 A2999 RMK A01 T01270006  RH  044%=      5-min Rain = 0
KRO1 240738Z 19010KT 13/01 A2999 RMK A01 T01280006  RH  043%=      5-min Rain = 0
KRO1 240739Z 19010KT 13/01 A2999 RMK A01 T01280006  RH  043%=      5-min Rain = 0
KRO1 240740Z 19010KT 13/01 A2998 RMK A01 T01290006  RH  043%=      5-min Rain = 0
KRO1 240741Z 19009KT 13/01 A2998 RMK A01 T01290006  RH  043%=      5-min Rain = 0
KRO1 240742Z 19009KT 13/01 A2998 RMK A01 T01290006  RH  043%=      5-min Rain = 0
KRO1 240743Z 19009KT 13/01 A2998 RMK A01 T01280006  RH  043%=      5-min Rain = 0
KRO1 240744Z 19009KT 13/01 A2998 RMK A01 T01270006  RH  043%=      5-min Rain = 0
KRO1 240745Z 19009KT 13/01 A2998 RMK A01 T01270006  RH  043%=      5-min Rain = 0
KRO1 240746Z 19008KT 13/01 A2998 RMK A01 T01260006  RH  044%=      5-min Rain = 0
KRO1 240747Z 19008KT 13/01 A2998 RMK A01 T01250006  RH  044%=      5-min Rain = 0
KRO1 240748Z 19008KT 12/01 A2998 RMK A01 T01240006  RH  045%=      5-min Rain = 0
KRO1 240749Z 19009KT 12/01 A2999 RMK A01 T01220007  RH  045%=      5-min Rain = 0
KRO1 240750Z 19009KT 12/01 A2999 RMK A01 T01210007  RH  046%=      5-min Rain = 0
KRO1 240751Z 19009KT 12/01 A2998 RMK A01 T01200007  RH  046%=      5-min Rain = 0
KRO1 240752Z 19008KT 12/01 A2998 RMK A01 T01180007  RH  046%=      5-min Rain = 0
KRO1 240753Z 19008KT 12/01 A2999 RMK A01 T01170007  RH  047%=      5-min Rain = 0
KRO1 240754Z 19008KT 12/01 A2999 RMK A01 T01160007  RH  047%=      5-min Rain = 0
KRO1 240755Z 19008KT 12/01 A2999 RMK A01 T01150008  RH  048%=      5-min Rain = 0
KRO1 240756Z 19007KT 11/01 A2999 RMK A01 T01140008  RH  048%=      5-min Rain = 0
KRO1 240757Z 19007KT 11/01 A2999 RMK A01 T01140007  RH  048%=      5-min Rain = 0
KRO1 240758Z 19007KT 11/01 A2999 RMK A01 T01130007  RH  048%=      5-min Rain = 0
KRO1 240759Z 19007KT 11/01 A2999 RMK A01 T01130008  RH  048%=      5-min Rain = 0
KRO1 240800Z 20007KT 11/01 A2999 RMK A01 T01120009  RH  049%=      5-min Rain = 0
KRO1 240801Z 20008KT 11/01 A2999 RMK A01 T01110009  RH  049%=      5-min Rain = 0
KRO1 240802Z 20008KT 11/01 A2999 RMK A01 T01110008  RH  049%=      5-min Rain = 0
KRO1 240803Z 20008KT 11/01 A2999 RMK A01 T01110008  RH  049%=      5-min Rain = 0
KRO1 240804Z 20009KT 11/01 A2999 RMK A01 T01120008  RH  049%=      5-min Rain = 0
KRO1 240805Z 20009KT 11/01 A2999 RMK A01 T01130007  RH  048%=      5-min Rain = 0
KRO1 240806Z 20011KT 12/01 A2999 RMK A01 T01150007  RH  047%=      5-min Rain = 0
KRO1 240807Z 20011KT 12/01 A2999 RMK A01 T01170006  RH  046%=      5-min Rain = 0
KRO1 240808Z 20011KT 12/01 A2999 RMK A01 T01190006  RH  046%=      5-min Rain = 0
KRO1 240809Z 20012KT 12/01 A2999 RMK A01 T01210006  RH  045%=      5-min Rain = 0
KRO1 240810Z 20012KT 12/01 A2998 RMK A01 T01220007  RH  045%=      5-min Rain = 0
KRO1 240811Z 20012KT 13/01 A2998 RMK A01 T01250008  RH  045%=      5-min Rain = 0
KRO1 240812Z 20012KT 13/01 A2998 RMK A01 T01270009  RH  045%=      5-min Rain = 0
KRO1 240813Z 20012KT 13/01 A2998 RMK A01 T01280010  RH  044%=      5-min Rain = 0
KRO1 240814Z 20011KT 13/01 A2998 RMK A01 T01290010  RH  044%=      5-min Rain = 0
KRO1 240815Z 20011KT 13/01 A2998 RMK A01 T01280010  RH  044%=      5-min Rain = 0
KRO1 240816Z 20011KT 13/01 A2998 RMK A01 T01280010  RH  045%=      5-min Rain = 0
KRO1 240817Z 20011KT 13/01 A2998 RMK A01 T01270011  RH  045%=      5-min Rain = 0
KRO1 240818Z 20012KT 13/01 A2998 RMK A01 T01270012  RH  046%=      5-min Rain = 0
KRO1 240819Z 20012KT 13/01 A2998 RMK A01 T01270014  RH  046%=      5-min Rain = 0
KRO1 240820Z 20012KT 13/02 A2998 RMK A01 T01280016  RH  046%=      5-min Rain = 0
KRO1 240821Z 20012KT 13/02 A2998 RMK A01 T01290017  RH  047%=      5-min Rain = 0
KRO1 240822Z 20013KT 13/02 A2998 RMK A01 T01290019  RH  047%=      5-min Rain = 0
KRO1 240823Z 20012KT 13/02 A2998 RMK A01 T01300020  RH  047%=      5-min Rain = 0
KRO1 240824Z 20012KT 13/02 A2998 RMK A01 T01310021  RH  047%=      5-min Rain = 0
KRO1 240825Z 20012KT 13/02 A2998 RMK A01 T01300021  RH  048%=      5-min Rain = 0
KRO1 240826Z 20012KT 13/02 A2998 RMK A01 T01300021  RH  048%=      5-min Rain = 0
KRO1 240827Z 20012KT 13/02 A2998 RMK A01 T01290021  RH  048%=      5-min Rain = 0
KRO1 240828Z 20012KT 13/02 A2998 RMK A01 T01280021  RH  048%=      5-min Rain = 0
KRO1 240829Z 21012KT 13/02 A2998 RMK A01 T01280021  RH  048%=      5-min Rain = 0
KRO1 240830Z 21012KT 13/02 A2998 RMK A01 T01270022  RH  049%=      5-min Rain = 0
KRO1 240831Z 21012KT 13/02 A2998 RMK A01 T01270022  RH  049%=      5-min Rain = 0
KRO1 240832Z 21012KT 13/02 A2998 RMK A01 T01270023  RH  049%=      5-min Rain = 0
KRO1 240833Z 21013KT 13/02 A2998 RMK A01 T01270022  RH  049%=      5-min Rain = 0
KRO1 240834Z 21013KT 13/02 A2998 RMK A01 T01270023  RH  049%=      5-min Rain = 0
KRO1 240835Z 21012KT 13/02 A2998 RMK A01 T01270023  RH  049%=      5-min Rain = 0
KRO1 240836Z 21012KT 13/02 A2998 RMK A01 T01270024  RH  050%=      5-min Rain = 0
KRO1 240837Z 22012KT 13/03 A2999 RMK A01 T01270025  RH  050%=      5-min Rain = 0
KRO1 240838Z 22012KT 13/03 A2999 RMK A01 T01260025  RH  050%=      5-min Rain = 0
KRO1 240839Z 22012KT 13/03 A2999 RMK A01 T01260026  RH  050%=      5-min Rain = 0
KRO1 240840Z 22011KT 13/03 A2999 RMK A01 T01260027  RH  051%=      5-min Rain = 0
KRO1 240841Z 22011KT 13/03 A2999 RMK A01 T01260028  RH  051%=      5-min Rain = 0
KRO1 240842Z 22010KT 13/03 A2999 RMK A01 T01260030  RH  052%=      5-min Rain = 0
KRO1 240843Z 22010KT 13/03 A2999 RMK A01 T01260031  RH  052%=      5-min Rain = 0
KRO1 240844Z 22010KT 13/03 A2999 RMK A01 T01260033  RH  053%=      5-min Rain = 0
KRO1 240845Z 22010KT 13/03 A2999 RMK A01 T01260034  RH  053%=      5-min Rain = 0
KRO1 240846Z 22010KT 13/04 A2999 RMK A01 T01270036  RH  054%=      5-min Rain = 0
KRO1 240847Z 22010KT 13/04 A2999 RMK A01 T01260037  RH  054%=      5-min Rain = 0
KRO1 240848Z 22010KT 13/04 A2999 RMK A01 T01270038  RH  055%=      5-min Rain = 0
KRO1 240849Z 22010KT 13/04 A2999 RMK A01 T01270039  RH  055%=      5-min Rain = 0
KRO1 240850Z 22010KT 13/04 A2999 RMK A01 T01280040  RH  055%=      5-min Rain = 0
KRO1 240851Z 22010KT 13/04 A2999 RMK A01 T01280042  RH  056%=      5-min Rain = 0
KRO1 240852Z 22010KT 13/04 A2999 RMK A01 T01280043  RH  056%=      5-min Rain = 0
KRO1 240853Z 22010KT 13/05 A2999 RMK A01 T01290045  RH  057%=      5-min Rain = 0
KRO1 240854Z 22010KT 13/05 A2999 RMK A01 T01290046  RH  057%=      5-min Rain = 0
KRO1 240855Z 22010KT 13/05 A2999 RMK A01 T01290048  RH  058%=      5-min Rain = 0
KRO1 240856Z 22011KT 13/05 A2999 RMK A01 T01290048  RH  058%=      5-min Rain = 0
KRO1 240857Z 22011KT 13/05 A2999 RMK A01 T01300050  RH  058%=      5-min Rain = 0
KRO1 240858Z 22010KT 13/05 A2999 RMK A01 T01300051  RH  059%=      5-min Rain = 0
KRO1 240859Z 22011KT 13/05 A2999 RMK A01 T01310052  RH  059%=      5-min Rain = 0
KRO1 240900Z 22011KT 13/05 A2999 RMK A01 T01310053  RH  059%=      5-min Rain = 0
KRO1 240901Z 22011KT 13/05 A2999 RMK A01 T01310054  RH  059%=      5-min Rain = 0
KRO1 240902Z 22011KT 13/06 A2999 RMK A01 T01320055  RH  060%=      5-min Rain = 0
KRO1 240903Z 22011KT 13/06 A2999 RMK A01 T01320056  RH  060%=      5-min Rain = 0
KRO1 240904Z 22010KT 13/06 A2999 RMK A01 T01330058  RH  060%=      5-min Rain = 0
KRO1 240905Z 22010KT 13/06 A2999 RMK A01 T01330058  RH  060%=      5-min Rain = 0
KRO1 240906Z 22010KT 13/06 A2999 RMK A01 T01340058  RH  060%=      5-min Rain = 0
KRO1 240907Z 22010KT 13/06 A2999 RMK A01 T01330059  RH  061%=      5-min Rain = 0
KRO1 240908Z 22009KT 13/06 A2999 RMK A01 T01330060  RH  061%=      5-min Rain = 0
KRO1 240909Z 22010KT 13/06 A2999 RMK A01 T01340061  RH  061%=      5-min Rain = 0
KRO1 240910Z 22009KT 13/06 A2999 RMK A01 T01340062  RH  061%=      5-min Rain = 0
KRO1 240911Z 22010KT 13/06 A2999 RMK A01 T01340062  RH  061%=      5-min Rain = 0
KRO1 240912Z 22010KT 14/06 A2999 RMK A01 T01350062  RH  062%=      5-min Rain = 0
KRO1 240913Z 21010KT 14/06 A2999 RMK A01 T01350063  RH  062%=      5-min Rain = 0
KRO1 240914Z 21010KT 14/06 A2999 RMK A01 T01350064  RH  062%=      5-min Rain = 0
KRO1 240915Z 21010KT 14/06 A2999 RMK A01 T01350064  RH  062%=      5-min Rain = 0
KRO1 240916Z 21010KT 14/07 A2999 RMK A01 T01350065  RH  063%=      5-min Rain = 0
KRO1 240917Z 21010KT 14/07 A2999 RMK A01 T01350066  RH  063%=      5-min Rain = 0
KRO1 240918Z 21010KT 14/07 A2999 RMK A01 T01360066  RH  063%=      5-min Rain = 0
KRO1 240919Z 21010KT 14/07 A2999 RMK A01 T01360067  RH  063%=      5-min Rain = 0
KRO1 240920Z 21011KT 14/07 A2999 RMK A01 T01360067  RH  063%=      5-min Rain = 0
KRO1 240921Z 21011KT 14/07 A2999 RMK A01 T01360067  RH  063%=      5-min Rain = 0
KRO1 240922Z 21011KT 14/07 A2999 RMK A01 T01360068  RH  063%=      5-min Rain = 0
KRO1 240923Z 21011KT 14/07 A2999 RMK A01 T01360068  RH  063%=      5-min Rain = 0
KRO1 240924Z 21011KT 14/07 A2999 RMK A01 T01360068  RH  063%=      5-min Rain = 0
KRO1 240925Z 21011KT 14/07 A2999 RMK A01 T01360068  RH  063%=      5-min Rain = 0
KRO1 240926Z 21011KT 14/07 A2999 RMK A01 T01350068  RH  064%=      5-min Rain = 0
KRO1 240927Z 21011KT 14/07 A2999 RMK A01 T01350068  RH  064%=      5-min Rain = 0
KRO1 240928Z 21010KT 14/07 A2999 RMK A01 T01350068  RH  064%=      5-min Rain = 0
KRO1 240929Z 21010KT 13/07 A2999 RMK A01 T01340068  RH  064%=      5-min Rain = 0
KRO1 240930Z 21010KT 13/07 A2999 RMK A01 T01330068  RH  065%=      5-min Rain = 0
KRO1 240931Z 21010KT 13/07 A2999 RMK A01 T01330069  RH  065%=      5-min Rain = 0
KRO1 240932Z 21010KT 13/07 A2999 RMK A01 T01330070  RH  065%=      5-min Rain = 0
KRO1 240933Z 21010KT 13/07 A2999 RMK A01 T01330070  RH  066%=      5-min Rain = 0
KRO1 240934Z 21011KT 13/07 A2999 RMK A01 T01330071  RH  066%=      5-min Rain = 0
KRO1 240935Z 21010KT 13/07 A2999 RMK A01 T01330071  RH  066%=      5-min Rain = 0
KRO1 240936Z 21010KT 13/07 A2999 RMK A01 T01330072  RH  066%=      5-min Rain = 0
KRO1 240937Z 21010KT 13/07 A2999 RMK A01 T01330072  RH  067%=      5-min Rain = 0
KRO1 240938Z 21010KT 13/07 A2999 RMK A01 T01330073  RH  067%=      5-min Rain = 0
KRO1 240939Z 22010KT 13/07 A2999 RMK A01 T01320073  RH  067%=      5-min Rain = 0
KRO1 240940Z 22010KT 13/07 A2999 RMK A01 T01320074  RH  068%=      5-min Rain = 0
KRO1 240941Z 22010KT 13/07 A2999 RMK A01 T01320074  RH  068%=      5-min Rain = 0
KRO1 240942Z 22010KT 13/08 A2999 RMK A01 T01330076  RH  068%=      5-min Rain = 0
KRO1 240943Z 22010KT 13/08 A2999 RMK A01 T01330076  RH  068%=      5-min Rain = 0
KRO1 240944Z 22009KT 13/08 A2999 RMK A01 T01330077  RH  069%=      5-min Rain = 0
KRO1 240945Z 22009KT 13/08 A2999 RMK A01 T01330077  RH  069%=      5-min Rain = 0
KRO1 240946Z 22009KT 13/08 A2999 RMK A01 T01340077  RH  069%=      5-min Rain = 0
KRO1 240947Z 22009KT 13/08 A2999 RMK A01 T01340079  RH  069%=      5-min Rain = 0
KRO1 240948Z 22009KT 13/08 A2999 RMK A01 T01340079  RH  069%=      5-min Rain = 0
KRO1 240949Z 22009KT 13/08 A2999 RMK A01 T01340079  RH  070%=      5-min Rain = 0
KRO1 240950Z 22010KT 13/08 A2999 RMK A01 T01340080  RH  070%=      5-min Rain = 0
KRO1 240951Z 22010KT 14/08 A2999 RMK A01 T01350081  RH  070%=      5-min Rain = 0
KRO1 240952Z 22010KT 14/08 A2999 RMK A01 T01350082  RH  070%=      5-min Rain = 0
KRO1 240953Z 22010KT 14/08 A2999 RMK A01 T01350082  RH  070%=      5-min Rain = 0
KRO1 240954Z 22010KT 14/08 A2999 RMK A01 T01350082  RH  070%=      5-min Rain = 0
KRO1 240955Z 22010KT 14/08 A2999 RMK A01 T01360082  RH  070%=      5-min Rain = 0
KRO1 240956Z 22010KT 14/08 A2999 RMK A01 T01360083  RH  070%=      5-min Rain = 0
KRO1 240957Z 22011KT 14/08 A2999 RMK A01 T01370083  RH  070%=      5-min Rain = 0
KRO1 240958Z 22011KT 14/08 A2999 RMK A01 T01370084  RH  070%=      5-min Rain = 0
KRO1 240959Z 22010KT 14/08 A2999 RMK A01 T01370084  RH  070%=      5-min Rain = 0
KRO1 241000Z 22010KT 14/08 A2999 RMK A01 T01370084  RH  070%=      5-min Rain = 0
KRO1 241001Z 22011KT 14/08 A2999 RMK A01 T01370084  RH  070%=      5-min Rain = 0
KRO1 241002Z 22010KT 14/08 A2999 RMK A01 T01360084  RH  071%=      5-min Rain = 0
KRO1 241003Z 22011KT 14/08 A2999 RMK A01 T01360084  RH  071%=      5-min Rain = 0
KRO1 241004Z 22011KT 14/08 A2999 RMK A01 T01360084  RH  071%=      5-min Rain = 0
KRO1 241005Z 22011KT 14/08 A2999 RMK A01 T01360084  RH  071%=      5-min Rain = 0
KRO1 241006Z 22011KT 14/09 A2999 RMK A01 T01350085  RH  071%=      5-min Rain = 0
KRO1 241007Z 22010KT 14/09 A2999 RMK A01 T01360086  RH  072%=      5-min Rain = 0
KRO1 241008Z 22011KT 14/09 A2999 RMK A01 T01360086  RH  072%=      5-min Rain = 0
KRO1 241009Z 22011KT 14/09 A2999 RMK A01 T01360086  RH  072%=      5-min Rain = 0
KRO1 241010Z 22010KT 14/09 A2999 RMK A01 T01360086  RH  072%=      5-min Rain = 0
KRO1 241011Z 22010KT 14/09 A2999 RMK A01 T01350086  RH  072%=      5-min Rain = 0
KRO1 241012Z 22011KT 14/09 A2999 RMK A01 T01350086  RH  072%=      5-min Rain = 0
KRO1 241013Z 22010KT 13/09 A2999 RMK A01 T01340086  RH  073%=      5-min Rain = 0
KRO1 241014Z 22010KT 13/09 A2999 RMK A01 T01340086  RH  073%=      5-min Rain = 0
KRO1 241015Z 22010KT 13/09 A2999 RMK A01 T01340086  RH  073%=      5-min Rain = 0
KRO1 241016Z 22011KT 13/09 A2999 RMK A01 T01330087  RH  073%=      5-min Rain = 0
KRO1 241017Z 22011KT 13/09 A2999 RMK A01 T01330087  RH  073%=      5-min Rain = 0
KRO1 241018Z 22012KT 13/09 A2999 RMK A01 T01340088  RH  074%=      5-min Rain = 0
KRO1 241019Z 22011KT 13/09 A2999 RMK A01 T01340089  RH  074%=      5-min Rain = 0
KRO1 241020Z 22012KT 14/09 A2999 RMK A01 T01360090  RH  074%=      5-min Rain = 0
KRO1 241021Z 22012KT 14/09 A2999 RMK A01 T01360090  RH  074%=      5-min Rain = 0
KRO1 241022Z 22012KT 14/09 A2999 RMK A01 T01360091  RH  074%=      5-min Rain = 0
KRO1 241023Z 22011KT 14/09 A2999 RMK A01 T01360091  RH  074%=      5-min Rain = 0
KRO1 241024Z 22012KT 14/09 A2999 RMK A01 T01350091  RH  075%=      5-min Rain = 0
KRO1 241025Z 22012KT 14/09 A2999 RMK A01 T01350092  RH  075%=      5-min Rain = 0
KRO1 241026Z 22012KT 14/09 A2999 RMK A01 T01350093  RH  075%=      5-min Rain = 0
KRO1 241027Z 22012KT 14/09 A2999 RMK A01 T01360093  RH  075%=      5-min Rain = 0
KRO1 241028Z 22012KT 14/09 A2999 RMK A01 T01350094  RH  076%=      5-min Rain = 0
KRO1 241029Z 22012KT 14/09 A2999 RMK A01 T01350094  RH  076%=      5-min Rain = 0
KRO1 241030Z 22012KT 14/10 A2999 RMK A01 T01360095  RH  076%=      5-min Rain = 0
KRO1 241031Z 22012KT 14/10 A2999 RMK A01 T01360096  RH  076%=      5-min Rain = 0
KRO1 241032Z 22012KT 14/10 A2999 RMK A01 T01370096  RH  076%=      5-min Rain = 0
KRO1 241033Z 22012KT 14/10 A2999 RMK A01 T01370096  RH  076%=      5-min Rain = 0
KRO1 241034Z 22012KT 14/10 A2999 RMK A01 T01370096  RH  077%=      5-min Rain = 0
KRO1 241035Z 22012KT 14/10 A2999 RMK A01 T01370097  RH  077%=      5-min Rain = 0
KRO1 241036Z 22012KT 14/10 A2999 RMK A01 T01360097  RH  077%=      5-min Rain = 0
KRO1 241037Z 22012KT 14/10 A2999 RMK A01 T01370099  RH  078%=      5-min Rain = 0
KRO1 241038Z 22011KT 14/10 A2999 RMK A01 T01370098  RH  077%=      5-min Rain = 0
KRO1 241039Z 22011KT 14/10 A2999 RMK A01 T01370099  RH  077%=      5-min Rain = 0
KRO1 241040Z 22012KT 14/10 A2999 RMK A01 T01370098  RH  078%=      5-min Rain = 0
KRO1 241041Z 22011KT 14/10 A2999 RMK A01 T01370099  RH  078%=      5-min Rain = 0
KRO1 241042Z 22011KT 14/10 A2999 RMK A01 T01360099  RH  078%=      5-min Rain = 0
KRO1 241043Z 22011KT 14/10 A2999 RMK A01 T01360099  RH  079%=      5-min Rain = 0
KRO1 241044Z 22012KT 14/10 A2999 RMK A01 T01350100  RH  079%=      5-min Rain = 0
KRO1 241045Z 22011KT 14/10 A2999 RMK A01 T01360101  RH  079%=      5-min Rain = 0
KRO1 241046Z 22012KT 14/10 A2999 RMK A01 T01360100  RH  079%=      5-min Rain = 0
KRO1 241047Z 22011KT 14/10 A2999 RMK A01 T01360101  RH  079%=      5-min Rain = 0
KRO1 241048Z 22012KT 14/10 A2999 RMK A01 T01360101  RH  079%=      5-min Rain = 0
KRO1 241049Z 22011KT 14/10 A2999 RMK A01 T01370102  RH  080%=      5-min Rain = 0
KRO1 241050Z 22012KT 14/10 A2999 RMK A01 T01360101  RH  079%=      5-min Rain = 0
KRO1 241051Z 22012KT 14/10 A2999 RMK A01 T01360102  RH  080%=      5-min Rain = 0
KRO1 241052Z 22012KT 14/10 A2999 RMK A01 T01360103  RH  080%=      5-min Rain = 0
KRO1 241053Z 22012KT 14/10 A2999 RMK A01 T01360103  RH  080%=      5-min Rain = 0
KRO1 241054Z 22011KT 14/10 A2999 RMK A01 T01370103  RH  080%=      5-min Rain = 0
KRO1 241055Z 22011KT 14/10 A30 RMK A01 T01370103  RH  080%=      5-min Rain = 0
KRO1 241056Z 22011KT 14/10 A30 RMK A01 T01360104  RH  081%=      5-min Rain = 0
KRO1 241057Z 22011KT 14/10 A30 RMK A01 T01360104  RH  081%=      5-min Rain = 0
KRO1 241058Z 22011KT 14/11 A30 RMK A01 T01360105  RH  081%=      5-min Rain = 0
KRO1 241059Z 22011KT 14/11 A30 RMK A01 T01360105  RH  081%=      5-min Rain = 0
KRO1 241100Z 22011KT 14/11 A30 RMK A01 T01360105  RH  082%=      5-min Rain = 0
KRO1 241101Z 22010KT 14/11 A30 RMK A01 T01360105  RH  082%=      5-min Rain = 0
KRO1 241102Z 22011KT 14/11 A30 RMK A01 T01360105  RH  082%=      5-min Rain = 0
KRO1 241103Z 22010KT 14/11 A30 RMK A01 T01360105  RH  082%=      5-min Rain = 0
KRO1 241104Z 22010KT 14/11 A30 RMK A01 T01350105  RH  082%=      5-min Rain = 0
KRO1 241105Z 22009KT 14/11 A30 RMK A01 T01350106  RH  082%=      5-min Rain = 0
KRO1 241106Z 22010KT 14/11 A30 RMK A01 T01350105  RH  082%=      5-min Rain = 0
KRO1 241107Z 22010KT 14/11 A30 RMK A01 T01350106  RH  083%=      5-min Rain = 0
KRO1 241108Z 22011KT 14/11 A30 RMK A01 T01350107  RH  083%=      5-min Rain = 0
KRO1 241109Z 22011KT 14/11 A30 RMK A01 T01360108  RH  083%=      5-min Rain = 0
KRO1 241110Z 22011KT 14/11 A30 RMK A01 T01360108  RH  083%=      5-min Rain = 0
KRO1 241111Z 22011KT 14/11 A30 RMK A01 T01360108  RH  083%=      5-min Rain = 0
KRO1 241112Z 22012KT 14/11 A30 RMK A01 T01360108  RH  083%=      5-min Rain = 0
KRO1 241113Z 21012KT 14/11 A30 RMK A01 T01370109  RH  083%=      5-min Rain = 0
KRO1 241114Z 21012KT 14/11 A30 RMK A01 T01370109  RH  083%=      5-min Rain = 0
KRO1 241115Z 22012KT 14/11 A30 RMK A01 T01370109  RH  083%=      5-min Rain = 0
KRO1 241116Z 21012KT 14/11 A30 RMK A01 T01370109  RH  083%=      5-min Rain = 0
KRO1 241117Z 21012KT 14/11 A30 RMK A01 T01370108  RH  083%=      5-min Rain = 0
KRO1 241118Z 21012KT 14/11 A30 RMK A01 T01370109  RH  083%=      5-min Rain = 0
KRO1 241119Z 21012KT 14/11 A30 RMK A01 T01370109  RH  083%=      5-min Rain = 0
KRO1 241120Z 21012KT 14/11 A30 RMK A01 T01360109  RH  083%=      5-min Rain = 0
KRO1 241121Z 21012KT 14/11 A30 RMK A01 T01350108  RH  083%=      5-min Rain = 0
KRO1 241122Z 21012KT 14/11 A30 RMK A01 T01350108  RH  084%=      5-min Rain = 0
KRO1 241123Z 21012KT 13/11 A30 RMK A01 T01340108  RH  084%=      5-min Rain = 0
KRO1 241124Z 21012KT 13/11 A30 RMK A01 T01340108  RH  084%=      5-min Rain = 0
KRO1 241125Z 21012KT 13/11 A30 RMK A01 T01340108  RH  085%=      5-min Rain = 0
KRO1 241126Z 21012KT 13/11 A30 RMK A01 T01340109  RH  085%=      5-min Rain = 0
KRO1 241127Z 21013KT 13/11 A30 RMK A01 T01340109  RH  085%=      5-min Rain = 0
KRO1 241128Z 21013KT 13/11 A30 RMK A01 T01340110  RH  085%=      5-min Rain = 0
KRO1 241129Z 21012KT 13/11 A30 RMK A01 T01340110  RH  085%=      5-min Rain = 0
KRO1 241130Z 21013KT 13/11 A30 RMK A01 T01340110  RH  085%=      5-min Rain = 0
KRO1 241131Z 21013KT 13/11 A30 RMK A01 T01340110  RH  085%=      5-min Rain = 0
KRO1 241132Z 21013KT 13/11 A30 RMK A01 T01340111  RH  086%=      5-min Rain = 0
KRO1 241133Z 21013KT 13/11 A30 RMK A01 T01340111  RH  086%=      5-min Rain = 0
KRO1 241134Z 21013KT 13/11 A30 RMK A01 T01340111  RH  086%=      5-min Rain = 0
KRO1 241135Z 21014KT 13/11 A30 RMK A01 T01340111  RH  086%=      5-min Rain = 0
KRO1 241136Z 21013KT 14/11 A30 RMK A01 T01350113  RH  087%=      5-min Rain = 0
KRO1 241137Z 21013KT 14/11 A30 RMK A01 T01360113  RH  086%=      5-min Rain = 0
KRO1 241138Z 21014KT 14/11 A30 RMK A01 T01360113  RH  086%=      5-min Rain = 0
KRO1 241139Z 21014KT 14/11 A30 RMK A01 T01360114  RH  087%=      5-min Rain = 0
KRO1 241140Z 21014KT 14/11 A30 RMK A01 T01360114  RH  087%=      5-min Rain = 0
KRO1 241141Z 21014KT 14/12 A30 RMK A01 T01370115  RH  086%=      5-min Rain = 0
KRO1 241142Z 21012KT 14/12 A30 RMK A01 T01370115  RH  086%=      5-min Rain = 0
KRO1 241143Z 21012KT 14/12 A30 RMK A01 T01370115  RH  087%=      5-min Rain = 0
KRO1 241144Z 21011KT 14/12 A30 RMK A01 T01360115  RH  087%=      5-min Rain = 0
KRO1 241145Z 21013KT 14/12 A30 RMK A01 T01360115  RH  087%=      5-min Rain = 0
KRO1 241146Z 21012KT 14/12 A30 RMK A01 T01360115  RH  087%=      5-min Rain = 0
KRO1 241147Z 22012KT 14/12 A30 RMK A01 T01360116  RH  087%=      5-min Rain = 0
KRO1 241148Z 22012KT 14/12 A30 RMK A01 T01360116  RH  088%=      5-min Rain = 0
KRO1 241149Z 21012KT 14/12 A30 RMK A01 T01360116  RH  088%=      5-min Rain = 0
KRO1 241150Z 21014KT 14/12 A30 RMK A01 T01370116  RH  087%=      5-min Rain = 0
KRO1 241151Z 22014KT 14/12 A30 RMK A01 T01370117  RH  088%=      5-min Rain = 0
KRO1 241152Z 22013KT 14/12 A30 RMK A01 T01380118  RH  088%=      5-min Rain = 0
KRO1 241153Z 22013KT 14/12 A30 RMK A01 T01390118  RH  087%=      5-min Rain = 0
KRO1 241154Z 21012KT 14/12 A30 RMK A01 T01390117  RH  087%=      5-min Rain = 0
KRO1 241155Z 22012KT 14/12 A30 RMK A01 T01380117  RH  087%=      5-min Rain = 0
KRO1 241156Z 22012KT 14/12 A30 RMK A01 T01380117  RH  088%=      5-min Rain = 0
KRO1 241157Z 22012KT 14/12 A30 RMK A01 T01370117  RH  088%=      5-min Rain = 0
KRO1 241158Z 22012KT 14/12 A30 RMK A01 T01380118  RH  088%=      5-min Rain = 0
KRO1 241159Z 21011KT 14/12 A30 RMK A01 T01370117  RH  088%=      5-min Rain = 0
KRO1 241200Z 21012KT 14/12 A30 RMK A01 T01370117  RH  088%=      5-min Rain = 0
KRO1 241201Z 21012KT 14/12 A30 RMK A01 T01370118  RH  088%=      5-min Rain = 0
KRO1 241202Z 21012KT 14/12 A30 RMK A01 T01370118  RH  088%=      5-min Rain = 0
KRO1 241203Z 21012KT 14/12 A30 RMK A01 T01370118  RH  088%=      5-min Rain = 0
KRO1 241204Z 21012KT 14/12 A30 RMK A01 T01370118  RH  088%=      5-min Rain = 0
KRO1 241205Z 21012KT 14/12 A30 RMK A01 T01370118  RH  089%=      5-min Rain = 0
KRO1 241206Z 21011KT 14/12 A30 RMK A01 T01370118  RH  089%=      5-min Rain = 0
KRO1 241207Z 21012KT 14/12 A30 RMK A01 T01370119  RH  089%=      5-min Rain = 0
KRO1 241208Z 21012KT 14/12 A30 RMK A01 T01360119  RH  089%=      5-min Rain = 0
KRO1 241209Z 21013KT 14/12 A30 RMK A01 T01370119  RH  089%=      5-min Rain = 0
KRO1 241210Z 20013KT 14/12 A30 RMK A01 T01370121  RH  090%=      5-min Rain = 0
KRO1 241211Z 21014KT 14/12 A30 RMK A01 T01380121  RH  089%=      5-min Rain = 0
KRO1 241212Z 21014KT 14/12 A30 RMK A01 T01380122  RH  090%=      5-min Rain = 0
KRO1 241213Z 21013KT 14/12 A30 RMK A01 T01380122  RH  090%=      5-min Rain = 0
KRO1 241214Z 21013KT 14/12 A30 RMK A01 T01380122  RH  090%=      5-min Rain = 0
KRO1 241215Z 21013KT 14/12 A30 RMK A01 T01380122  RH  090%=      5-min Rain = 0
KRO1 241216Z 21014KT 14/12 A30 RMK A01 T01390124  RH  091%=      5-min Rain = 0
KRO1 241217Z 21015KT 14/13 A30 RMK A01 T01400126  RH  091%=      5-min Rain = 0
KRO1 241218Z 21015KT 14/13 A30 RMK A01 T01420127  RH  091%=      5-min Rain = 0
KRO1 241219Z 21016KT 14/13 A30 RMK A01 T01430128  RH  091%=      5-min Rain = 0
KRO1 241220Z 21016KT 14/13 A30 RMK A01 T01440128  RH  090%=      5-min Rain = 0
KRO1 241221Z 21016KT 15/13 A30 RMK A01 T01450129  RH  090%=      5-min Rain = 0
KRO1 241222Z 21017KT 15/13 A30 RMK A01 T01460131  RH  091%=      5-min Rain = 0
KRO1 241223Z 21017KT 15/13 A30 RMK A01 T01470131  RH  090%=      5-min Rain = 0
KRO1 241224Z 21017KT 15/13 A30 RMK A01 T01480131  RH  090%=      5-min Rain = 0
KRO1 241225Z 21017KT 15/13 A30 RMK A01 T01480131  RH  090%=      5-min Rain = 0
KRO1 241226Z 21016KT 15/13 A30 RMK A01 T01480131  RH  090%=      5-min Rain = 0
KRO1 241227Z 20018KT 15/13 A30 RMK A01 T01480131  RH  090%=      5-min Rain = 0
KRO1 241228Z 21018KT 15/13 A30 RMK A01 T01480132  RH  090%=      5-min Rain = 0
KRO1 241229Z 21018KT 15/13 A30 RMK A01 T01490132  RH  090%=      5-min Rain = 0
KRO1 241230Z 21018KT 15/13 A30 RMK A01 T01490132  RH  090%=      5-min Rain = 0
KRO1 241231Z 21018KT 15/13 A30 RMK A01 T01490132  RH  089%=      5-min Rain = 0
KRO1 241232Z 21018KT 15/13 A30 RMK A01 T01490132  RH  089%=      5-min Rain = 0
KRO1 241233Z 21019KT 15/13 A30 RMK A01 T01500133  RH  090%=      5-min Rain = 0
KRO1 241234Z 21018KT 15/13 A30 RMK A01 T01500133  RH  089%=      5-min Rain = 0
KRO1 241235Z 21017KT 15/13 A30 RMK A01 T01500132  RH  089%=      5-min Rain = 0
KRO1 241236Z 21017KT 15/13 A30 RMK A01 T01500133  RH  089%=      5-min Rain = 0
KRO1 241237Z 21017KT 15/13 A30 RMK A01 T01500133  RH  089%=      5-min Rain = 0
KRO1 241238Z 21017KT 15/13 A30 RMK A01 T01500133  RH  089%=      5-min Rain = 0
KRO1 241239Z 21016G21KT 15/13 A30 RMK A01 T01510133  RH  089%=      5-min Rain = 0
KRO1 241240Z 21018KT 15/13 A30 RMK A01 T01510134  RH  089%=      5-min Rain = 0
KRO1 241241Z 21017KT 15/13 A30 RMK A01 T01510134  RH  089%=      5-min Rain = 0
KRO1 241242Z 21017KT 15/13 A30 RMK A01 T01510133  RH  089%=      5-min Rain = 0
KRO1 241243Z 21016KT 15/13 A30 RMK A01 T01510133  RH  089%=      5-min Rain = 0
KRO1 241244Z 21016KT 15/13 A30 RMK A01 T01500133  RH  089%=      5-min Rain = 0
KRO1 241245Z 21016KT 15/13 A30 RMK A01 T01500133  RH  089%=      5-min Rain = 0
KRO1 241246Z 21017KT 15/13 A3001 RMK A01 T01500133  RH  089%=      5-min Rain = 0
KRO1 241247Z 21017KT 15/13 A3001 RMK A01 T01500133  RH  089%=      5-min Rain = 0
KRO1 241248Z 21017KT 15/13 A3001 RMK A01 T01510133  RH  089%=      5-min Rain = 0
KRO1 241249Z 22016KT 15/13 A3001 RMK A01 T01510133  RH  089%=      5-min Rain = 0
KRO1 241250Z 22016KT 15/13 A3001 RMK A01 T01510133  RH  089%=      5-min Rain = 0
KRO1 241251Z 22015KT 15/13 A3001 RMK A01 T01510133  RH  089%=      5-min Rain = 0
KRO1 241252Z 22015KT 15/13 A3001 RMK A01 T01510133  RH  089%=      5-min Rain = 0
KRO1 241253Z 22015KT 15/13 A3001 RMK A01 T01510133  RH  089%=      5-min Rain = 0
KRO1 241254Z 22016KT 15/13 A3001 RMK A01 T01510133  RH  089%=      5-min Rain = 0
KRO1 241255Z 22014KT 15/13 A3001 RMK A01 T01510133  RH  089%=      5-min Rain = 0
KRO1 241256Z 22014KT 15/13 A3001 RMK A01 T01510133  RH  089%=      5-min Rain = 0
KRO1 241257Z 23013KT 15/13 A3001 RMK A01 T01510133  RH  089%=      5-min Rain = 0
KRO1 241258Z 23013KT 15/13 A3001 RMK A01 T01510133  RH  089%=      5-min Rain = 0
KRO1 241259Z 23013KT 15/13 A3001 RMK A01 T01510133  RH  089%=      5-min Rain = 0
KRO1 241300Z 23012KT 15/13 A3001 RMK A01 T01500133  RH  089%=      5-min Rain = 0
KRO1 241301Z 23014KT 15/13 A3001 RMK A01 T01510133  RH  089%=      5-min Rain = 0
KRO1 241302Z 22014KT 15/13 A3001 RMK A01 T01510133  RH  089%=      5-min Rain = 0
KRO1 241303Z 23014KT 15/13 A3002 RMK A01 T01510133  RH  089%=      5-min Rain = 0
KRO1 241304Z 23013KT 15/13 A3002 RMK A01 T01520134  RH  089%=      5-min Rain = 0
KRO1 241305Z 23014KT 15/13 A3002 RMK A01 T01520134  RH  089%=      5-min Rain = 0
KRO1 241306Z 23014KT 15/13 A3002 RMK A01 T01520134  RH  089%=      5-min Rain = 0
KRO1 241307Z 23014KT 15/13 A3002 RMK A01 T01520134  RH  089%=      5-min Rain = 0
KRO1 241308Z 23013KT 15/13 A3002 RMK A01 T01520134  RH  089%=      5-min Rain = 0
KRO1 241309Z 23012KT 15/13 A3002 RMK A01 T01520134  RH  089%=      5-min Rain = 0
KRO1 241310Z 23011KT 15/13 A3002 RMK A01 T01520134  RH  089%=      5-min Rain = 0
KRO1 241311Z 23013KT 15/13 A3002 RMK A01 T01520134  RH  089%=      5-min Rain = 0
KRO1 241312Z 23012KT 15/13 A3002 RMK A01 T01520134  RH  089%=      5-min Rain = 0
KRO1 241313Z 23013KT 15/13 A3002 RMK A01 T01520134  RH  089%=      5-min Rain = 0
KRO1 241314Z 23011KT 15/13 A3002 RMK A01 T01520134  RH  089%=      5-min Rain = 0
KRO1 241315Z 23012KT 15/13 A3002 RMK A01 T01520134  RH  089%=      5-min Rain = 0
KRO1 241316Z 23012KT 15/13 A3002 RMK A01 T01520134  RH  089%=      5-min Rain = 0
KRO1 241317Z 23011KT 15/13 A3002 RMK A01 T01520134  RH  089%=      5-min Rain = 0
KRO1 241318Z 23011KT 15/13 A3003 RMK A01 T01530134  RH  089%=      5-min Rain = 0
KRO1 241319Z 23010KT 15/13 A3003 RMK A01 T01530134  RH  089%=      5-min Rain = 0
KRO1 241320Z 23010KT 15/13 A3003 RMK A01 T01530134  RH  089%=      5-min Rain = 0
KRO1 241321Z 23009KT 15/13 A3003 RMK A01 T01530134  RH  089%=      5-min Rain = 0
KRO1 241322Z 24010KT 15/13 A3003 RMK A01 T01530134  RH  089%=      5-min Rain = 0
KRO1 241323Z 23011KT 15/14 A3003 RMK A01 T01540135  RH  089%=      5-min Rain = 0
KRO1 241324Z 23011KT 15/14 A3003 RMK A01 T01540135  RH  088%=      5-min Rain = 0
KRO1 241325Z 24010KT 16/14 A3003 RMK A01 T01550135  RH  088%=      5-min Rain = 0
KRO1 241326Z 23009KT 16/14 A3003 RMK A01 T01550135  RH  088%=      5-min Rain = 0
KRO1 241327Z 23010KT 16/14 A3003 RMK A01 T01550135  RH  088%=      5-min Rain = 0
KRO1 241328Z 24011KT 16/14 A3003 RMK A01 T01550135  RH  088%=      5-min Rain = 0
KRO1 241329Z 23009KT 16/14 A3003 RMK A01 T01560136  RH  088%=      5-min Rain = 0
KRO1 241330Z 24009KT 16/14 A3003 RMK A01 T01560136  RH  088%=      5-min Rain = 0
KRO1 241331Z 24009KT 16/14 A3003 RMK A01 T01560136  RH  088%=      5-min Rain = 0
KRO1 241332Z 24008KT 16/14 A3003 RMK A01 T01560136  RH  088%=      5-min Rain = 0
KRO1 241333Z 24008KT 16/14 A3004 RMK A01 T01560136  RH  088%=      5-min Rain = 0
KRO1 241334Z 24008KT 16/14 A3004 RMK A01 T01560136  RH  088%=      5-min Rain = 0
KRO1 241335Z 24008KT 16/14 A3004 RMK A01 T01560136  RH  088%=      5-min Rain = 0
KRO1 241336Z 24007KT 16/14 A3004 RMK A01 T01560136  RH  088%=      5-min Rain = 0
KRO1 241337Z 24009KT 16/14 A3004 RMK A01 T01560136  RH  088%=      5-min Rain = 0
KRO1 241338Z 24009KT 16/14 A3004 RMK A01 T01560136  RH  088%=      5-min Rain = 0
KRO1 241339Z 24009KT 16/14 A3004 RMK A01 T01560136  RH  088%=      5-min Rain = 0
KRO1 241340Z 24010KT 16/14 A3004 RMK A01 T01560136  RH  088%=      5-min Rain = 0
KRO1 241341Z 23010KT 16/14 A3004 RMK A01 T01560136  RH  088%=      5-min Rain = 0
KRO1 241342Z 23010KT 16/14 A3004 RMK A01 T01560136  RH  088%=      5-min Rain = 0
KRO1 241343Z 23010KT 16/14 A3004 RMK A01 T01570136  RH  088%=      5-min Rain = 0
KRO1 241344Z 23011KT 16/14 A3004 RMK A01 T01570136  RH  088%=      5-min Rain = 0
KRO1 241345Z 23012KT 16/14 A3004 RMK A01 T01570136  RH  087%=      5-min Rain = 0
KRO1 241346Z 23012KT 16/14 A3004 RMK A01 T01570136  RH  087%=      5-min Rain = 0
KRO1 241347Z 23012KT 16/14 A3004 RMK A01 T01580136  RH  087%=      5-min Rain = 0
KRO1 241348Z 23012KT 16/14 A3004 RMK A01 T01590136  RH  087%=      5-min Rain = 0
KRO1 241349Z 23013KT 16/14 A3004 RMK A01 T01590137  RH  087%=      5-min Rain = 0
KRO1 241350Z 22012KT 16/14 A3004 RMK A01 T01600137  RH  086%=      5-min Rain = 0
KRO1 241351Z 22014KT 16/14 A3004 RMK A01 T01600137  RH  086%=      5-min Rain = 0
KRO1 241352Z 22014KT 16/14 A3004 RMK A01 T01610137  RH  086%=      5-min Rain = 0
KRO1 241353Z 22013G18KT 16/14 A3004 RMK A01 T01620138  RH  086%=      5-min Rain = 0
KRO1 241354Z 22013KT 16/14 A3004 RMK A01 T01630138  RH  085%=      5-min Rain = 0
KRO1 241355Z 22014KT 16/14 A3004 RMK A01 T01640138  RH  085%=      5-min Rain = 0
KRO1 241356Z 23016KT 16/14 A3004 RMK A01 T01640138  RH  084%=      5-min Rain = 0
KRO1 241357Z 22018KT 17/14 A3004 RMK A01 T01650138  RH  084%=      5-min Rain = 0
KRO1 241358Z 22015KT 17/14 A3004 RMK A01 T01660138  RH  084%=      5-min Rain = 0
KRO1 241359Z 23014KT 17/14 A3004 RMK A01 T01670138  RH  083%=      5-min Rain = 0
KRO1 241400Z 22016KT 17/14 A3004 RMK A01 T01670139  RH  083%=      5-min Rain = 0
KRO1 241401Z 22016KT 17/14 A3004 RMK A01 T01670138  RH  083%=      5-min Rain = 0
KRO1 241402Z 22016KT 17/14 A3004 RMK A01 T01670138  RH  083%=      5-min Rain = 0
KRO1 241403Z 22016KT 17/14 A3004 RMK A01 T01670138  RH  083%=      5-min Rain = 0
KRO1 241404Z 22015KT 17/14 A3004 RMK A01 T01670137  RH  083%=      5-min Rain = 0
KRO1 241405Z 22016KT 17/14 A3004 RMK A01 T01670138  RH  083%=      5-min Rain = 0
KRO1 241406Z 23016KT 17/14 A3004 RMK A01 T01670138  RH  083%=      5-min Rain = 0
KRO1 241407Z 22016KT 17/14 A3004 RMK A01 T01670137  RH  083%=      5-min Rain = 0
KRO1 241408Z 22015KT 17/14 A3004 RMK A01 T01660137  RH  083%=      5-min Rain = 0
KRO1 241409Z 22016KT 17/14 A3004 RMK A01 T01660137  RH  083%=      5-min Rain = 0
KRO1 241410Z 22014KT 17/14 A3004 RMK A01 T01660137  RH  083%=      5-min Rain = 0
KRO1 241411Z 23014KT 17/14 A3004 RMK A01 T01660137  RH  083%=      5-min Rain = 0
KRO1 241412Z 23014KT 17/14 A3004 RMK A01 T01670137  RH  083%=      5-min Rain = 0
KRO1 241413Z 23015KT 17/14 A3004 RMK A01 T01670137  RH  083%=      5-min Rain = 0
KRO1 241414Z 23017KT 17/14 A3004 RMK A01 T01670137  RH  082%=      5-min Rain = 0
KRO1 241415Z 22016KT 17/14 A3004 RMK A01 T01670137  RH  082%=      5-min Rain = 0
KRO1 241416Z 22014KT 17/14 A3004 RMK A01 T01660137  RH  083%=      5-min Rain = 0
KRO1 241417Z 22014KT 17/14 A3004 RMK A01 T01660137  RH  083%=      5-min Rain = 0
KRO1 241418Z 23013KT 17/14 A3004 RMK A01 T01660137  RH  083%=      5-min Rain = 0
KRO1 241419Z 23015KT 17/14 A3004 RMK A01 T01660137  RH  083%=      5-min Rain = 0
KRO1 241420Z 23016KT 17/14 A3004 RMK A01 T01660136  RH  083%=      5-min Rain = 0
KRO1 241421Z 22011KT 17/14 A3005 RMK A01 T01660136  RH  083%=      5-min Rain = 0
KRO1 241422Z 23015KT 17/14 A3005 RMK A01 T01670137  RH  083%=      5-min Rain = 0
KRO1 241423Z 23016KT 17/14 A3005 RMK A01 T01680137  RH  082%=      5-min Rain = 0
KRO1 241424Z 22017G22KT 17/14 A3005 RMK A01 T01680137  RH  082%=      5-min Rain = 0
KRO1 241425Z 22017KT 17/14 A3005 RMK A01 T01690136  RH  081%=      5-min Rain = 0
KRO1 241426Z 23016KT 17/14 A3005 RMK A01 T01690136  RH  081%=      5-min Rain = 0
KRO1 241427Z 23016KT 17/14 A3005 RMK A01 T01700136  RH  080%=      5-min Rain = 0
KRO1 241428Z 23014KT 17/14 A3005 RMK A01 T01700137  RH  081%=      5-min Rain = 0
KRO1 241429Z 23014KT 17/14 A3005 RMK A01 T01710137  RH  081%=      5-min Rain = 0
KRO1 241430Z 23011KT 17/14 A3005 RMK A01 T01710137  RH  081%=      5-min Rain = 0
KRO1 241431Z 24014KT 17/14 A3005 RMK A01 T01710137  RH  080%=      5-min Rain = 0
KRO1 241432Z 24015KT 17/14 A3005 RMK A01 T01710136  RH  080%=      5-min Rain = 0
KRO1 241433Z 23014KT 17/14 A3005 RMK A01 T01710136  RH  080%=      5-min Rain = 0
KRO1 241434Z 24015KT 17/14 A3005 RMK A01 T01720136  RH  080%=      5-min Rain = 0
KRO1 241435Z 23014KT 17/14 A3005 RMK A01 T01730136  RH  079%=      5-min Rain = 0
KRO1 241436Z 23017KT 17/14 A3005 RMK A01 T01730137  RH  079%=      5-min Rain = 0
KRO1 241437Z 23015KT 17/14 A3005 RMK A01 T01740136  RH  078%=      5-min Rain = 0
KRO1 241438Z 24015KT 17/14 A3005 RMK A01 T01740136  RH  078%=      5-min Rain = 0
KRO1 241439Z 23014KT 17/14 A3005 RMK A01 T01740135  RH  078%=      5-min Rain = 0
KRO1 241440Z 23015KT 17/14 A3005 RMK A01 T01730135  RH  078%=      5-min Rain = 0
KRO1 241441Z 24015KT 17/14 A3005 RMK A01 T01730135  RH  078%=      5-min Rain = 0
KRO1 241442Z 23017KT 17/13 A3005 RMK A01 T01730134  RH  078%=      5-min Rain = 0
KRO1 241443Z 23016KT 17/13 A3006 RMK A01 T01730134  RH  078%=      5-min Rain = 0
KRO1 241444Z 23015KT 17/14 A3006 RMK A01 T01730135  RH  078%=      5-min Rain = 0
KRO1 241445Z 24013KT 17/14 A3006 RMK A01 T01740135  RH  078%=      5-min Rain = 0
KRO1 241446Z 24014KT 17/14 A3006 RMK A01 T01740135  RH  078%=      5-min Rain = 0
KRO1 241447Z 24015KT 18/14 A3006 RMK A01 T01760137  RH  078%=      5-min Rain = 0
KRO1 241448Z 24017KT 18/14 A3006 RMK A01 T01780136  RH  076%=      5-min Rain = 0
KRO1 241449Z 23015KT 18/14 A3006 RMK A01 T01770136  RH  076%=      5-min Rain = 0
KRO1 241450Z 23015KT 18/14 A3006 RMK A01 T01770137  RH  077%=      5-min Rain = 0
KRO1 241451Z 25015KT 18/14 A3006 RMK A01 T01780136  RH  076%=      5-min Rain = 0
KRO1 241452Z 25018KT 18/14 A3006 RMK A01 T01780136  RH  076%=      5-min Rain = 0
KRO1 241453Z 25016KT 18/14 A3006 RMK A01 T01780135  RH  076%=      5-min Rain = 0
KRO1 241454Z 25017KT 18/14 A3006 RMK A01 T01780135  RH  076%=      5-min Rain = 0
KRO1 241455Z 24017KT 18/13 A3006 RMK A01 T01780134  RH  076%=      5-min Rain = 0
KRO1 241456Z 24018KT 18/13 A3006 RMK A01 T01770133  RH  075%=      5-min Rain = 0
KRO1 241457Z 23017KT 18/13 A3006 RMK A01 T01770134  RH  075%=      5-min Rain = 0
KRO1 241458Z 23016KT 18/14 A3006 RMK A01 T01780135  RH  076%=      5-min Rain = 0
KRO1 241459Z 24017KT 18/13 A3006 RMK A01 T01800134  RH  075%=      5-min Rain = 0
KRO1 241500Z 25016KT 18/14 A3006 RMK A01 T01810135  RH  075%=      5-min Rain = 0
KRO1 241501Z 24016KT 18/13 A3006 RMK A01 T01810134  RH  074%=      5-min Rain = 0
KRO1 241502Z 25017KT 18/13 A3006 RMK A01 T01810134  RH  074%=      5-min Rain = 0
KRO1 241503Z 24016KT 18/13 A3006 RMK A01 T01790133  RH  074%=      5-min Rain = 0
KRO1 241504Z 24016KT 18/13 A3006 RMK A01 T01790134  RH  075%=      5-min Rain = 0
KRO1 241505Z 25015KT 18/14 A3006 RMK A01 T01800135  RH  075%=      5-min Rain = 0
KRO1 241506Z 25016KT 18/13 A3006 RMK A01 T01810133  RH  074%=      5-min Rain = 0
KRO1 241507Z 26016KT 18/13 A3006 RMK A01 T01800133  RH  074%=      5-min Rain = 0
KRO1 241508Z 26016KT 18/13 A3006 RMK A01 T01800132  RH  074%=      5-min Rain = 0
KRO1 241509Z 25016KT 18/13 A3006 RMK A01 T01790132  RH  074%=      5-min Rain = 0
KRO1 241510Z 25018KT 18/13 A3006 RMK A01 T01790132  RH  074%=      5-min Rain = 0
KRO1 241511Z 24015KT 18/13 A3007 RMK A01 T01800132  RH  073%=      5-min Rain = 0
KRO1 241512Z 24016KT 18/13 A3007 RMK A01 T01820133  RH  073%=      5-min Rain = 0
KRO1 241513Z 24015KT 18/13 A3007 RMK A01 T01820132  RH  072%=      5-min Rain = 0
KRO1 241514Z 25016KT 18/13 A3007 RMK A01 T01820131  RH  072%=      5-min Rain = 0
KRO1 241515Z 25015KT 18/13 A3007 RMK A01 T01800130  RH  073%=      5-min Rain = 0
KRO1 241516Z 25014KT 18/13 A3007 RMK A01 T01780131  RH  074%=      5-min Rain = 0
KRO1 241517Z 25015KT 18/13 A3007 RMK A01 T01780133  RH  075%=      5-min Rain = 0
KRO1 241518Z 26015KT 18/13 A3007 RMK A01 T01780132  RH  074%=      5-min Rain = 0
KRO1 241519Z 27013KT 18/13 A3007 RMK A01 T01780131  RH  074%=      5-min Rain = 0
KRO1 241520Z 26014KT 18/13 A3007 RMK A01 T01780132  RH  074%=      5-min Rain = 0
KRO1 241521Z 27014KT 18/13 A3007 RMK A01 T01780131  RH  074%=      5-min Rain = 0
KRO1 241522Z 26015KT 18/13 A3007 RMK A01 T01790131  RH  073%=      5-min Rain = 0
KRO1 241523Z 26014KT 18/13 A3007 RMK A01 T01800132  RH  073%=      5-min Rain = 0
KRO1 241524Z 26016KT 18/13 A3007 RMK A01 T01800131  RH  073%=      5-min Rain = 0
KRO1 241525Z 26013KT 18/13 A3007 RMK A01 T01790130  RH  073%=      5-min Rain = 0
KRO1 241526Z 26012KT 18/13 A3007 RMK A01 T01780131  RH  074%=      5-min Rain = 0
KRO1 241527Z 25012KT 18/13 A3007 RMK A01 T01800133  RH  074%=      5-min Rain = 0
KRO1 241528Z 26013KT 18/13 A3007 RMK A01 T01810132  RH  073%=      5-min Rain = 0
KRO1 241529Z 26013KT 18/13 A3007 RMK A01 T01820133  RH  073%=      5-min Rain = 0
KRO1 241530Z 25013KT 18/13 A3008 RMK A01 T01840133  RH  072%=      5-min Rain = 0
KRO1 241531Z 25013KT 18/13 A3007 RMK A01 T01830132  RH  072%=      5-min Rain = 0
KRO1 241532Z 25013KT 18/13 A3007 RMK A01 T01830132  RH  072%=      5-min Rain = 0
KRO1 241533Z 25012KT 18/13 A3007 RMK A01 T01820131  RH  072%=      5-min Rain = 0
KRO1 241534Z 25012KT 18/13 A3007 RMK A01 T01820133  RH  073%=      5-min Rain = 0
KRO1 241535Z 25013KT 19/13 A3008 RMK A01 T01850133  RH  072%=      5-min Rain = 0
KRO1 241536Z 26011KT 19/13 A3008 RMK A01 T01850132  RH  072%=      5-min Rain = 0
KRO1 241537Z 26012KT 19/13 A3007 RMK A01 T01850133  RH  072%=      5-min Rain = 0
KRO1 241538Z 26012KT 19/13 A3008 RMK A01 T01870134  RH  071%=      5-min Rain = 0
KRO1 241539Z 26014KT 19/13 A3008 RMK A01 T01880133  RH  071%=      5-min Rain = 0
KRO1 241540Z 25015KT 19/13 A3007 RMK A01 T01880133  RH  070%=      5-min Rain = 0
KRO1 241541Z 25015KT 19/13 A3007 RMK A01 T01870129  RH  069%=      5-min Rain = 0
KRO1 241542Z 26015KT 19/13 A3007 RMK A01 T01850130  RH  070%=      5-min Rain = 0
KRO1 241543Z 24014KT 19/13 A3008 RMK A01 T01860132  RH  071%=      5-min Rain = 0
KRO1 241544Z 24013KT 19/13 A3008 RMK A01 T01880134  RH  070%=      5-min Rain = 0
KRO1 241545Z 25014KT 19/13 A3008 RMK A01 T01900134  RH  070%=      5-min Rain = 0
KRO1 241546Z 25015KT 19/13 A3007 RMK A01 T01900133  RH  069%=      5-min Rain = 0
KRO1 241547Z 26015KT 19/13 A3008 RMK A01 T01900133  RH  069%=      5-min Rain = 0
KRO1 241548Z 25014KT 19/13 A3008 RMK A01 T01870131  RH  070%=      5-min Rain = 0
KRO1 241549Z 24014KT 19/13 A3008 RMK A01 T01850132  RH  071%=      5-min Rain = 0
KRO1 241550Z 25015KT 18/13 A3008 RMK A01 T01840133  RH  072%=      5-min Rain = 0
KRO1 241551Z 24014KT 19/13 A3008 RMK A01 T01850133  RH  072%=      5-min Rain = 0
KRO1 241552Z 25013KT 19/13 A3008 RMK A01 T01860133  RH  071%=      5-min Rain = 0
KRO1 241553Z 25015KT 19/13 A3008 RMK A01 T01870132  RH  070%=      5-min Rain = 0
KRO1 241554Z 26017KT 19/13 A3007 RMK A01 T01880131  RH  069%=      5-min Rain = 0
KRO1 241555Z 26017KT 19/13 A3007 RMK A01 T01880130  RH  069%=      5-min Rain = 0
KRO1 241556Z 26016KT 19/13 A3007 RMK A01 T01880126  RH  067%=      5-min Rain = 0
KRO1 241557Z 25016KT 19/13 A3008 RMK A01 T01900129  RH  068%=      5-min Rain = 0
KRO1 241558Z 25018KT 19/13 A3007 RMK A01 T01900127  RH  067%=      5-min Rain = 0
KRO1 241559Z 25016KT 19/13 A3007 RMK A01 T01900125  RH  066%=      5-min Rain = 0
KRO1 241600Z 25015KT 19/13 A3008 RMK A01 T01920129  RH  067%=      5-min Rain = 0
KRO1 241601Z 25016KT 19/13 A3007 RMK A01 T01930130  RH  067%=      5-min Rain = 0
KRO1 241602Z 24014KT 19/13 A3007 RMK A01 T01920129  RH  067%=      5-min Rain = 0
KRO1 241603Z 25014KT 19/13 A3007 RMK A01 T01910131  RH  068%=      5-min Rain = 0
KRO1 241604Z 25015KT 19/13 A3007 RMK A01 T01920134  RH  069%=      5-min Rain = 0
KRO1 241605Z 24018KT 19/13 A3007 RMK A01 T01940132  RH  067%=      5-min Rain = 0
KRO1 241606Z 25017KT 20/13 A3007 RMK A01 T01950128  RH  065%=      5-min Rain = 0
KRO1 241607Z 24016KT 20/13 A3008 RMK A01 T01950129  RH  066%=      5-min Rain = 0
KRO1 241608Z 24016KT 20/13 A3008 RMK A01 T01950128  RH  065%=      5-min Rain = 0
KRO1 241609Z 23017KT 20/13 A3008 RMK A01 T01950126  RH  064%=      5-min Rain = 0
KRO1 241610Z 23014KT 19/13 A3008 RMK A01 T01940126  RH  065%=      5-min Rain = 0
KRO1 241611Z 24014G19KT 19/13 A3008 RMK A01 T01940129  RH  066%=      5-min Rain = 0
KRO1 241612Z 25016KT 20/13 A3007 RMK A01 T01970125  RH  063%=      5-min Rain = 0
KRO1 241613Z 25014KT 20/13 A3007 RMK A01 T01960126  RH  064%=      5-min Rain = 0
KRO1 241614Z 24014KT 20/13 A3008 RMK A01 T01980131  RH  065%=      5-min Rain = 0
KRO1 241615Z 23016KT 20/13 A3007 RMK A01 T01990129  RH  064%=      5-min Rain = 0
KRO1 241616Z 25014KT 20/13 A3008 RMK A01 T01960127  RH  064%=      5-min Rain = 0
KRO1 241617Z 23014KT 20/13 A3008 RMK A01 T01950130  RH  066%=      5-min Rain = 0
KRO1 241618Z 24013KT 20/13 A3008 RMK A01 T01950129  RH  065%=      5-min Rain = 0
KRO1 241619Z 25012KT 20/13 A3008 RMK A01 T01960128  RH  065%=      5-min Rain = 0
KRO1 241620Z 26012KT 20/13 A3008 RMK A01 T01980130  RH  065%=      5-min Rain = 0
KRO1 241621Z 26015KT 20/13 A3008 RMK A01 T02010129  RH  064%=      5-min Rain = 0
KRO1 241622Z 26014KT 20/13 A3008 RMK A01 T02010128  RH  063%=      5-min Rain = 0
KRO1 241623Z 26013KT 20/13 A3008 RMK A01 T01990129  RH  064%=      5-min Rain = 0
KRO1 241624Z 25012KT 20/13 A3008 RMK A01 T01980127  RH  063%=      5-min Rain = 0
KRO1 241625Z 24014KT 20/13 A3008 RMK A01 T01980129  RH  064%=      5-min Rain = 0
KRO1 241626Z 23014KT 20/13 A3008 RMK A01 T01970129  RH  065%=      5-min Rain = 0
KRO1 241627Z 24014KT 20/13 A3008 RMK A01 T01970128  RH  064%=      5-min Rain = 0
KRO1 241628Z 24014KT 20/13 A3008 RMK A01 T01970129  RH  065%=      5-min Rain = 0
KRO1 241629Z 24013KT 20/13 A3008 RMK A01 T01950127  RH  065%=      5-min Rain = 0
KRO1 241630Z 25015KT 20/13 A3008 RMK A01 T01950126  RH  064%=      5-min Rain = 0
KRO1 241631Z 24015KT 20/13 A3008 RMK A01 T01950125  RH  064%=      5-min Rain = 0
KRO1 241632Z 25013KT 20/12 A3008 RMK A01 T01950123  RH  063%=      5-min Rain = 0
KRO1 241633Z 25014G19KT 19/12 A3008 RMK A01 T01940124  RH  064%=      5-min Rain = 0
KRO1 241634Z 25015KT 19/12 A3008 RMK A01 T01930124  RH  064%=      5-min Rain = 0
KRO1 241635Z 25015KT 19/12 A3008 RMK A01 T01920123  RH  064%=      5-min Rain = 0
KRO1 241636Z 26013KT 19/12 A3008 RMK A01 T01920123  RH  064%=      5-min Rain = 0
KRO1 241637Z 26012KT 19/12 A3008 RMK A01 T01930124  RH  065%=      5-min Rain = 0
KRO1 241638Z 24012KT 19/13 A3008 RMK A01 T01930126  RH  065%=      5-min Rain = 0
KRO1 241639Z 25013KT 20/13 A3008 RMK A01 T01950127  RH  065%=      5-min Rain = 0
KRO1 241640Z 26012KT 20/13 A3008 RMK A01 T01960126  RH  064%=      5-min Rain = 0
KRO1 241641Z 25013KT 20/13 A3008 RMK A01 T01980126  RH  063%=      5-min Rain = 0
KRO1 241642Z 25012KT 20/13 A3008 RMK A01 T01980125  RH  062%=      5-min Rain = 0
KRO1 241643Z 24011KT 20/12 A3008 RMK A01 T01960124  RH  063%=      5-min Rain = 0
KRO1 241644Z 24012KT 20/12 A3008 RMK A01 T01950124  RH  064%=      5-min Rain = 0
KRO1 241645Z 23012KT 20/13 A3008 RMK A01 T01950125  RH  064%=      5-min Rain = 0
KRO1 241646Z 24013KT 19/13 A3008 RMK A01 T01940127  RH  065%=      5-min Rain = 0
KRO1 241647Z 24011KT 20/13 A3008 RMK A01 T01950129  RH  066%=      5-min Rain = 0
KRO1 241648Z 25014KT 20/13 A3008 RMK A01 T01990128  RH  064%=      5-min Rain = 0
KRO1 241649Z 24014KT 20/13 A3008 RMK A01 T02020127  RH  062%=      5-min Rain = 0
KRO1 241650Z 26013KT 20/13 A3008 RMK A01 T02010125  RH  061%=      5-min Rain = 0
KRO1 241651Z 25011KT 20/12 A3008 RMK A01 T02000124  RH  062%=      5-min Rain = 0
KRO1 241652Z 23010KT 20/13 A3008 RMK A01 T01990125  RH  062%=      5-min Rain = 0
KRO1 241653Z 26014KT 20/13 A3008 RMK A01 T01990127  RH  063%=      5-min Rain = 0
KRO1 241654Z 26014KT 20/13 A3008 RMK A01 T02000126  RH  062%=      5-min Rain = 0
KRO1 241655Z 26011KT 20/13 A3008 RMK A01 T01980125  RH  062%=      5-min Rain = 0
KRO1 241656Z 26010KT 20/13 A3008 RMK A01 T01960125  RH  063%=      5-min Rain = 0
KRO1 241657Z 26014KT 20/12 A3008 RMK A01 T01970122  RH  062%=      5-min Rain = 0
KRO1 241658Z 26014KT 20/12 A3008 RMK A01 T01980123  RH  062%=      5-min Rain = 0
KRO1 241659Z 25014KT 20/12 A3008 RMK A01 T01970124  RH  063%=      5-min Rain = 0
KRO1 241700Z 26012KT 20/12 A3008 RMK A01 T01960123  RH  063%=      5-min Rain = 0
KRO1 241701Z 25012KT 20/12 A3008 RMK A01 T01960123  RH  063%=      5-min Rain = 0
KRO1 241702Z 24014KT 20/12 A3008 RMK A01 T01960123  RH  063%=      5-min Rain = 0
KRO1 241703Z 24013KT 20/12 A3008 RMK A01 T01970120  RH  061%=      5-min Rain = 0
KRO1 241704Z 24010KT 20/12 A3008 RMK A01 T01980123  RH  062%=      5-min Rain = 0
KRO1 241705Z 23013KT 20/13 A3008 RMK A01 T02010125  RH  062%=      5-min Rain = 0
KRO1 241706Z 25012KT 20/13 A3008 RMK A01 T02020126  RH  062%=      5-min Rain = 0
KRO1 241707Z 26012KT 20/13 A3008 RMK A01 T02020126  RH  062%=      5-min Rain = 0
KRO1 241708Z 26010KT 20/13 A3008 RMK A01 T02010129  RH  063%=      5-min Rain = 0
KRO1 241709Z 26012G18KT 21/13 A3008 RMK A01 T02050129  RH  062%=      5-min Rain = 0
KRO1 241710Z 25012KT 21/13 A3008 RMK A01 T02070128  RH  060%=      5-min Rain = 0
KRO1 241711Z 25012KT 21/13 A3008 RMK A01 T02050126  RH  061%=      5-min Rain = 0
KRO1 241712Z 24012KT 20/13 A3007 RMK A01 T02030127  RH  062%=      5-min Rain = 0
KRO1 241713Z 25010KT 20/13 A3008 RMK A01 T02040130  RH  063%=      5-min Rain = 0
KRO1 241714Z 28010KT 21/13 A3007 RMK A01 T02070129  RH  061%=      5-min Rain = 0
KRO1 241715Z 25010KT 21/13 A3007 RMK A01 T02060128  RH  061%=      5-min Rain = 0
KRO1 241716Z 25008KT 21/13 A3007 RMK A01 T02060128  RH  061%=      5-min Rain = 0
KRO1 241717Z 27009KT 21/13 A3007 RMK A01 T02070129  RH  061%=      5-min Rain = 0
KRO1 241718Z 27011KT 21/13 A3007 RMK A01 T02080129  RH  061%=      5-min Rain = 0
KRO1 241719Z 27009KT 21/13 A3008 RMK A01 T02070128  RH  060%=      5-min Rain = 0
KRO1 241720Z 26010KT 21/13 A3008 RMK A01 T02050128  RH  061%=      5-min Rain = 0
KRO1 241721Z 27007KT 20/13 A3008 RMK A01 T02030128  RH  062%=      5-min Rain = 0
KRO1 241722Z 26010KT 20/13 A3008 RMK A01 T02020128  RH  063%=      5-min Rain = 0
KRO1 241723Z 26010KT 20/13 A3008 RMK A01 T02030127  RH  061%=      5-min Rain = 0
KRO1 241724Z 27009KT 21/13 A3007 RMK A01 T02050128  RH  061%=      5-min Rain = 0
KRO1 241725Z 27007KT 21/13 A3007 RMK A01 T02060126  RH  060%=      5-min Rain = 0
KRO1 241726Z 27008KT 21/13 A3007 RMK A01 T02060129  RH  061%=      5-min Rain = 0
KRO1 241727Z 26010KT 21/13 A3007 RMK A01 T02090133  RH  062%=      5-min Rain = 0
KRO1 241728Z 26010KT 21/13 A3007 RMK A01 T02110131  RH  060%=      5-min Rain = 0
KRO1 241729Z 25010KT 21/13 A3007 RMK A01 T02120130  RH  059%=      5-min Rain = 0
KRO1 241730Z 25011KT 21/13 A3007 RMK A01 T02140129  RH  059%=      5-min Rain = 0
KRO1 241731Z 26010KT 21/13 A3007 RMK A01 T02140128  RH  058%=      5-min Rain = 0
KRO1 241732Z 25010KT 21/13 A3007 RMK A01 T02130130  RH  059%=      5-min Rain = 0
KRO1 241733Z 27011KT 21/13 A3007 RMK A01 T02100129  RH  060%=      5-min Rain = 0
KRO1 241734Z 26010G15KT 21/13 A3007 RMK A01 T02090129  RH  060%=      5-min Rain = 0
KRO1 241735Z 25012KT 21/13 A3007 RMK A01 T02090127  RH  059%=      5-min Rain = 0
KRO1 241736Z 23011KT 21/13 A3007 RMK A01 T02090126  RH  059%=      5-min Rain = 0
KRO1 241737Z 24010KT 21/13 A3007 RMK A01 T02080127  RH  060%=      5-min Rain = 0
KRO1 241738Z 26010KT 21/13 A3007 RMK A01 T02080129  RH  060%=      5-min Rain = 0
KRO1 241739Z 28009KT 21/13 A3007 RMK A01 T02110128  RH  059%=      5-min Rain = 0
KRO1 241740Z 26009KT 21/13 A3007 RMK A01 T02120129  RH  059%=      5-min Rain = 0
KRO1 241741Z 25010KT 21/13 A3007 RMK A01 T02130129  RH  059%=      5-min Rain = 0
KRO1 241742Z 24010KT 21/13 A3007 RMK A01 T02130128  RH  058%=      5-min Rain = 0
KRO1 241743Z 23011KT 21/13 A3007 RMK A01 T02130127  RH  058%=      5-min Rain = 0
KRO1 241744Z 23011KT 21/13 A3007 RMK A01 T02130126  RH  057%=      5-min Rain = 0
KRO1 241745Z 22008KT 21/13 A3007 RMK A01 T02120127  RH  058%=      5-min Rain = 0
KRO1 241746Z 25009KT 21/13 A3006 RMK A01 T02110126  RH  058%=      5-min Rain = 0
KRO1 241747Z 25012KT 21/13 A3006 RMK A01 T02130125  RH  057%=      5-min Rain = 0
KRO1 241748Z 25008KT 21/13 A3006 RMK A01 T02130125  RH  057%=      5-min Rain = 0
KRO1 241749Z 27009KT 21/13 A3006 RMK A01 T02140127  RH  058%=      5-min Rain = 0
KRO1 241750Z 24007KT 22/13 A3006 RMK A01 T02160129  RH  058%=      5-min Rain = 0
KRO1 241751Z 24007KT 22/13 A3006 RMK A01 T02180130  RH  057%=      5-min Rain = 0
KRO1 241752Z 23008KT 22/13 A3006 RMK A01 T02190127  RH  056%=      5-min Rain = 0
KRO1 241753Z 24008KT 22/13 A3006 RMK A01 T02200127  RH  056%=      5-min Rain = 0
KRO1 241754Z 24008KT 22/13 A3006 RMK A01 T02180126  RH  056%=      5-min Rain = 0
KRO1 241755Z 25010KT 22/13 A3006 RMK A01 T02170130  RH  058%=      5-min Rain = 0
KRO1 241756Z 26013KT 22/13 A3006 RMK A01 T02170130  RH  058%=      5-min Rain = 0
KRO1 241757Z 26011KT 22/13 A3006 RMK A01 T02170129  RH  057%=      5-min Rain = 0
KRO1 241758Z 26008KT 22/13 A3006 RMK A01 T02160129  RH  058%=      5-min Rain = 0
KRO1 241759Z 25010KT 21/13 A3006 RMK A01 T02140128  RH  058%=      5-min Rain = 0
KRO1 241800Z 26009KT 21/12 A3006 RMK A01 T02140123  RH  056%=      5-min Rain = 0
KRO1 241801Z 26010KT 22/13 A3006 RMK A01 T02150125  RH  057%=      5-min Rain = 0
KRO1 241802Z 24010KT 22/12 A3006 RMK A01 T02150121  RH  055%=      5-min Rain = 0
KRO1 241803Z 23011KT 22/12 A3006 RMK A01 T02160121  RH  055%=      5-min Rain = 0
KRO1 241804Z 23011KT 22/12 A3006 RMK A01 T02180121  RH  054%=      5-min Rain = 0
KRO1 241805Z 23012KT 22/12 A3006 RMK A01 T02180117  RH  053%=      5-min Rain = 0
KRO1 241806Z 23011KT 22/12 A3006 RMK A01 T02170118  RH  053%=      5-min Rain = 0
KRO1 241807Z 24011KT 22/12 A3006 RMK A01 T02210122  RH  053%=      5-min Rain = 0
KRO1 241808Z 25011KT 22/12 A3006 RMK A01 T02220123  RH  053%=      5-min Rain = 0
KRO1 241809Z 27008KT 22/12 A3006 RMK A01 T02220121  RH  053%=      5-min Rain = 0
KRO1 241810Z 24010KT 22/12 A3006 RMK A01 T02210120  RH  053%=      5-min Rain = 0
KRO1 241811Z 24011KT 22/12 A3006 RMK A01 T02220120  RH  052%=      5-min Rain = 0
KRO1 241812Z 24012KT 22/12 A3006 RMK A01 T02240121  RH  052%=      5-min Rain = 0
KRO1 241813Z 23010KT 23/12 A3006 RMK A01 T02260121  RH  051%=      5-min Rain = 0
KRO1 241814Z 25011KT 23/12 A3006 RMK A01 T02260121  RH  051%=      5-min Rain = 0
KRO1 241815Z 26012KT 23/12 A3006 RMK A01 T02270118  RH  050%=      5-min Rain = 0
KRO1 241816Z 25011KT 23/12 A3006 RMK A01 T02270116  RH  049%=      5-min Rain = 0
KRO1 241817Z 25009KT 23/12 A3006 RMK A01 T02260118  RH  050%=      5-min Rain = 0
KRO1 241818Z 26010KT 23/12 A3006 RMK A01 T02250118  RH  051%=      5-min Rain = 0
KRO1 241819Z 27011G17KT 22/12 A3006 RMK A01 T02240120  RH  052%=      5-min Rain = 0
KRO1 241820Z 26011G16KT 23/12 A3006 RMK A01 T02270121  RH  051%=      5-min Rain = 0
KRO1 241821Z 24012KT 23/12 A3006 RMK A01 T02270124  RH  052%=      5-min Rain = 0
KRO1 241822Z 24011KT 23/12 A3006 RMK A01 T02270124  RH  052%=      5-min Rain = 0
KRO1 241823Z 24011KT 23/12 A3006 RMK A01 T02260122  RH  052%=      5-min Rain = 0
KRO1 241824Z 24007KT 22/12 A3006 RMK A01 T02230122  RH  053%=      5-min Rain = 0
KRO1 241825Z 24006KT 22/12 A3006 RMK A01 T02210123  RH  054%=      5-min Rain = 0
KRO1 241826Z 26009KT 22/12 A3005 RMK A01 T02220122  RH  053%=      5-min Rain = 0
KRO1 241827Z 25012KT 23/12 A3005 RMK A01 T02270117  RH  050%=      5-min Rain = 0
KRO1 241828Z 25010KT 23/11 A3005 RMK A01 T02280114  RH  048%=      5-min Rain = 0
KRO1 241829Z 25013KT 23/11 A3005 RMK A01 T02280114  RH  049%=      5-min Rain = 0
KRO1 241830Z 26012KT 23/11 A3005 RMK A01 T02270112  RH  048%=      5-min Rain = 0
KRO1 241831Z 26011KT 23/11 A3005 RMK A01 T02270110  RH  048%=      5-min Rain = 0
KRO1 241832Z 26012KT 23/12 A3005 RMK A01 T02290116  RH  049%=      5-min Rain = 0
KRO1 241833Z 25010KT 23/12 A3005 RMK A01 T02320117  RH  048%=      5-min Rain = 0
KRO1 241834Z 25007KT 23/12 A3005 RMK A01 T02290118  RH  049%=      5-min Rain = 0
KRO1 241835Z 23009KT 23/12 A3005 RMK A01 T02260118  RH  050%=      5-min Rain = 0
KRO1 241836Z 24007KT 23/12 A3005 RMK A01 T02260120  RH  051%=      5-min Rain = 0
KRO1 241837Z 22008KT 23/12 A3005 RMK A01 T02290119  RH  050%=      5-min Rain = 0
KRO1 241838Z 24005KT 23/12 A3005 RMK A01 T02310120  RH  050%=      5-min Rain = 0
KRO1 241839Z 27008KT 23/12 A3005 RMK A01 T02330120  RH  049%=      5-min Rain = 0
KRO1 241840Z 25012KT 24/12 A3005 RMK A01 T02370117  RH  047%=      5-min Rain = 0
KRO1 241841Z 24011KT 24/11 A3005 RMK A01 T02360113  RH  046%=      5-min Rain = 0
KRO1 241842Z 26010G15KT 24/11 A3005 RMK A01 T02350114  RH  047%=      5-min Rain = 0
KRO1 241843Z 25013KT 24/11 A3005 RMK A01 T02360113  RH  046%=      5-min Rain = 0
KRO1 241844Z 25010KT 24/11 A3005 RMK A01 T02350112  RH  046%=      5-min Rain = 0
KRO1 241845Z 26007KT 23/11 A3005 RMK A01 T02330113  RH  047%=      5-min Rain = 0
KRO1 241846Z 27006KT 23/12 A3005 RMK A01 T02320117  RH  048%=      5-min Rain = 0
KRO1 241847Z 25008KT 24/12 A3005 RMK A01 T02350119  RH  048%=      5-min Rain = 0
KRO1 241848Z 25005KT 24/12 A3005 RMK A01 T02350117  RH  047%=      5-min Rain = 0
KRO1 241849Z 25003KT 23/12 A3005 RMK A01 T02340116  RH  048%=      5-min Rain = 0
KRO1 241850Z 25005KT 23/12 A3005 RMK A01 T02330117  RH  048%=      5-min Rain = 0
KRO1 241851Z 27009KT 23/12 A3005 RMK A01 T02320120  RH  049%=      5-min Rain = 0
KRO1 241852Z 27008KT 24/12 A3005 RMK A01 T02370122  RH  049%=      5-min Rain = 0
KRO1 241853Z 24008KT 24/12 A3005 RMK A01 T02390119  RH  047%=      5-min Rain = 0
KRO1 241854Z 24007KT 24/12 A3005 RMK A01 T02380121  RH  048%=      5-min Rain = 0
KRO1 241855Z 26009KT 24/12 A3005 RMK A01 T02380121  RH  048%=      5-min Rain = 0
KRO1 241856Z 26011KT 24/12 A3005 RMK A01 T02390120  RH  047%=      5-min Rain = 0
KRO1 241857Z 26010KT 24/12 A3005 RMK A01 T02400122  RH  048%=      5-min Rain = 0
KRO1 241858Z 26008KT 24/12 A3005 RMK A01 T02390121  RH  048%=      5-min Rain = 0
KRO1 241859Z 26005KT 24/12 A3005 RMK A01 T02390118  RH  047%=      5-min Rain = 0
KRO1 241900Z 26004KT 24/12 A3005 RMK A01 T02380120  RH  048%=      5-min Rain = 0
KRO1 241901Z 26003KT 24/12 A3005 RMK A01 T02370121  RH  048%=      5-min Rain = 0
KRO1 241902Z 28003KT 24/12 A3005 RMK A01 T02370123  RH  049%=      5-min Rain = 0
KRO1 241903Z 26010KT 24/13 A3004 RMK A01 T02400127  RH  049%=      5-min Rain = 0
KRO1 241904Z 24007KT 24/13 A3005 RMK A01 T02410125  RH  048%=      5-min Rain = 0
KRO1 241905Z 24007KT 24/12 A3004 RMK A01 T02440120  RH  046%=      5-min Rain = 0
KRO1 241906Z 25005KT 24/12 A3004 RMK A01 T02430120  RH  046%=      5-min Rain = 0
KRO1 241907Z 26004KT 24/12 A3004 RMK A01 T02430120  RH  046%=      5-min Rain = 0
KRO1 241908Z 23005KT 24/12 A3004 RMK A01 T02440118  RH  045%=      5-min Rain = 0
KRO1 241909Z 26004KT 24/12 A3004 RMK A01 T02440119  RH  045%=      5-min Rain = 0
KRO1 241910Z 25005KT 25/12 A3004 RMK A01 T02460119  RH  045%=      5-min Rain = 0
KRO1 241911Z 23007KT 25/12 A3004 RMK A01 T02500124  RH  046%=      5-min Rain = 0
KRO1 241912Z 23010KT 25/12 A3004 RMK A01 T02530119  RH  043%=      5-min Rain = 0
KRO1 241913Z 24005KT 25/11 A3004 RMK A01 T02510107  RH  040%=      5-min Rain = 0
KRO1 241914Z 23005KT 25/11 A3004 RMK A01 T02490107  RH  041%=      5-min Rain = 0
KRO1 241915Z 22009KT 25/11 A3004 RMK A01 T02480110  RH  042%=      5-min Rain = 0
KRO1 241916Z 23012KT 25/11 A3004 RMK A01 T02510106  RH  040%=      5-min Rain = 0
KRO1 241917Z 24009KT 25/12 A3004 RMK A01 T02530117  RH  043%=      5-min Rain = 0
KRO1 241918Z 23008KT 26/11 A3004 RMK A01 T02550105  RH  039%=      5-min Rain = 0
KRO1 241919Z 25007KT 26/11 A3004 RMK A01 T02560112  RH  041%=      5-min Rain = 0
KRO1 241920Z 23007G12KT 25/11 A3003 RMK A01 T02520111  RH  041%=      5-min Rain = 0
KRO1 241921Z 24011KT 25/10 A3003 RMK A01 T02510104  RH  040%=      5-min Rain = 0
KRO1 241922Z 23012KT 25/10 A3003 RMK A01 T02500101  RH  039%=      5-min Rain = 0
KRO1 241923Z 23010KT 25/10 A3003 RMK A01 T02520102  RH  039%=      5-min Rain = 0
KRO1 241924Z 23010KT 25/11 A3003 RMK A01 T02520107  RH  040%=      5-min Rain = 0
KRO1 241925Z 23011KT 25/11 A3003 RMK A01 T02500108  RH  041%=      5-min Rain = 0
KRO1 241926Z 22010KT 25/11 A3003 RMK A01 T02510108  RH  041%=      5-min Rain = 0
KRO1 241927Z 22009KT 25/11 A3003 RMK A01 T02510108  RH  041%=      5-min Rain = 0
KRO1 241928Z 23009KT 25/11 A3003 RMK A01 T02510112  RH  042%=      5-min Rain = 0
KRO1 241929Z 22005KT 25/11 A3003 RMK A01 T02520108  RH  040%=      5-min Rain = 0
KRO1 241930Z 22005KT 25/11 A3003 RMK A01 T02510109  RH  041%=      5-min Rain = 0
KRO1 241931Z 23006KT 25/11 A3002 RMK A01 T02520113  RH  042%=      5-min Rain = 0
KRO1 241932Z 26007KT 25/12 A3002 RMK A01 T02540120  RH  043%=      5-min Rain = 0
KRO1 241933Z 26005KT 26/12 A3002 RMK A01 T02560119  RH  042%=      5-min Rain = 0
KRO1 241934Z 25008KT 26/12 A3002 RMK A01 T02560119  RH  042%=      5-min Rain = 0
KRO1 241935Z 27008KT 26/12 A3002 RMK A01 T02560119  RH  042%=      5-min Rain = 0
KRO1 241936Z 28007KT 26/12 A3002 RMK A01 T02560116  RH  042%=      5-min Rain = 0
KRO1 241937Z 28008KT 26/12 A3002 RMK A01 T02550117  RH  042%=      5-min Rain = 0
KRO1 241938Z 29006KT 26/12 A3002 RMK A01 T02550115  RH  042%=      5-min Rain = 0
KRO1 241939Z 29005KT 25/12 A3002 RMK A01 T02540117  RH  042%=      5-min Rain = 0
KRO1 241940Z 29002KT 25/11 A3002 RMK A01 T02530113  RH  042%=      5-min Rain = 0
KRO1 241941Z 01001KT 25/12 A3002 RMK A01 T02520116  RH  042%=      5-min Rain = 0
KRO1 241942Z 34002KT 25/11 A3002 RMK A01 T02510114  RH  042%=      5-min Rain = 0
KRO1 241943Z 30001KT 25/11 A3002 RMK A01 T02500113  RH  042%=      5-min Rain = 0
KRO1 241944Z 19002KT 25/12 A3001 RMK A01 T02520116  RH  043%=      5-min Rain = 0
KRO1 241945Z 20003KT 26/12 A3001 RMK A01 T02550115  RH  042%=      5-min Rain = 0
KRO1 241946Z 21003KT 26/11 A3001 RMK A01 T02570111  RH  040%=      5-min Rain = 0
KRO1 241947Z 21006KT 26/11 A3001 RMK A01 T02570112  RH  040%=      5-min Rain = 0
KRO1 241948Z 23008KT 26/11 A3001 RMK A01 T02580113  RH  040%=      5-min Rain = 0
KRO1 241949Z 24005KT 26/11 A3001 RMK A01 T02580112  RH  040%=      5-min Rain = 0
KRO1 241950Z 25004KT 26/12 A3001 RMK A01 T02580115  RH  041%=      5-min Rain = 0
KRO1 241951Z 25004KT 26/11 A3001 RMK A01 T02590113  RH  040%=      5-min Rain = 0
KRO1 241952Z 25002KT 26/11 A3001 RMK A01 T02590112  RH  040%=      5-min Rain = 0
KRO1 241953Z 30006KT 26/11 A3001 RMK A01 T02600114  RH  040%=      5-min Rain = 0
KRO1 241954Z 31005KT 26/11 A3001 RMK A01 T02580112  RH  040%=      5-min Rain = 0
KRO1 241955Z 28006KT 26/11 A30 RMK A01 T02570114  RH  041%=      5-min Rain = 0
KRO1 241956Z 28008KT 26/12 A30 RMK A01 T02580117  RH  041%=      5-min Rain = 0
KRO1 241957Z 28007KT 26/11 A30 RMK A01 T02610114  RH  040%=      5-min Rain = 0
KRO1 241958Z 28006KT 26/11 A30 RMK A01 T02610111  RH  039%=      5-min Rain = 0
KRO1 241959Z 28005KT 26/11 A30 RMK A01 T02590111  RH  040%=      5-min Rain = 0
KRO1 242000Z 30005KT 26/11 A30 RMK A01 T02580108  RH  039%=      5-min Rain = 0
KRO1 242001Z 27005KT 26/11 A30 RMK A01 T02590109  RH  039%=      5-min Rain = 0
KRO1 242002Z 25009KT 26/10 A30 RMK A01 T02610096  RH  035%=      5-min Rain = 0
KRO1 242003Z 24008KT 26/09 A30 RMK A01 T02630092  RH  034%=      5-min Rain = 0
KRO1 242004Z 24011KT 27/09 A30 RMK A01 T02660085  RH  032%=      5-min Rain = 0
KRO1 242005Z 24012KT 27/08 A30 RMK A01 T02680081  RH  031%=      5-min Rain = 0
KRO1 242006Z 25007KT 27/08 A30 RMK A01 T02660076  RH  030%=      5-min Rain = 0
KRO1 242007Z 24004KT 26/07 A30 RMK A01 T02640073  RH  030%=      5-min Rain = 0
KRO1 242008Z 22007G13KT 26/07 A30 RMK A01 T02620074  RH  030%=      5-min Rain = 0
KRO1 242009Z 21012KT 26/07 A30 RMK A01 T02640069  RH  029%=      5-min Rain = 0
KRO1 242010Z 21009KT 27/07 A30 RMK A01 T02670066  RH  028%=      5-min Rain = 0
KRO1 242011Z 20009G14KT 27/07 A30 RMK A01 T02700065  RH  027%=      5-min Rain = 0
KRO1 242012Z 20009KT 27/07 A30 RMK A01 T02700065  RH  027%=      5-min Rain = 0
KRO1 242013Z 21008KT 27/06 A30 RMK A01 T02690061  RH  027%=      5-min Rain = 0
KRO1 242014Z 22006KT 27/06 A30 RMK A01 T02680056  RH  026%=      5-min Rain = 0
KRO1 242015Z 24005KT 27/06 A30 RMK A01 T02670059  RH  027%=      5-min Rain = 0
KRO1 242016Z 27008G13KT 27/07 A30 RMK A01 T02650065  RH  028%=      5-min Rain = 0
KRO1 242017Z 26012KT 26/06 A30 RMK A01 T02640060  RH  027%=      5-min Rain = 0
KRO1 242018Z 24007KT 27/06 A30 RMK A01 T02650059  RH  027%=      5-min Rain = 0
KRO1 242019Z 26005KT 27/06 A30 RMK A01 T02650064  RH  028%=      5-min Rain = 0
KRO1 242020Z 21006KT 27/07 A30 RMK A01 T02660065  RH  028%=      5-min Rain = 0
KRO1 242021Z 20007KT 27/06 A30 RMK A01 T02680064  RH  027%=      5-min Rain = 0
KRO1 242022Z 22010KT 27/07 A30 RMK A01 T02710065  RH  027%=      5-min Rain = 0
KRO1 242023Z 23009KT 27/06 A30 RMK A01 T02710063  RH  027%=      5-min Rain = 0
KRO1 242024Z 25010KT 27/07 A30 RMK A01 T02720066  RH  027%=      5-min Rain = 0
KRO1 242025Z 26009KT 27/07 A30 RMK A01 T02740066  RH  027%=      5-min Rain = 0
KRO1 242026Z 27011KT 28/06 A2999 RMK A01 T02750062  RH  026%=      5-min Rain = 0
KRO1 242027Z 28010KT 27/06 A30 RMK A01 T02730055  RH  025%=      5-min Rain = 0
KRO1 242028Z 28009KT 27/06 A2999 RMK A01 T02700056  RH  025%=      5-min Rain = 0
KRO1 242029Z 25008KT 27/06 A2999 RMK A01 T02730060  RH  026%=      5-min Rain = 0
KRO1 242030Z 23008G13KT 28/06 A2999 RMK A01 T02750059  RH  025%=      5-min Rain = 0
KRO1 242031Z 20013KT 28/06 A2999 RMK A01 T02750057  RH  025%=      5-min Rain = 0
KRO1 242032Z 20008KT 27/05 A2999 RMK A01 T02730051  RH  024%=      5-min Rain = 0
KRO1 242033Z 23006KT 27/05 A30 RMK A01 T02680054  RH  025%=      5-min Rain = 0
KRO1 242034Z 23007KT 27/06 A2999 RMK A01 T02690058  RH  026%=      5-min Rain = 0
KRO1 242035Z 22005KT 27/06 A2999 RMK A01 T02710057  RH  026%=      5-min Rain = 0
KRO1 242036Z 26007G12KT 27/06 A2999 RMK A01 T02710059  RH  026%=      5-min Rain = 0
KRO1 242037Z 26009G15KT 27/06 A2999 RMK A01 T02720062  RH  026%=      5-min Rain = 0
KRO1 242038Z 25011KT 27/06 A2999 RMK A01 T02710062  RH  026%=      5-min Rain = 0
KRO1 242039Z 25010G17KT 28/06 A2999 RMK A01 T02750062  RH  026%=      5-min Rain = 0
KRO1 242040Z 24010KT 28/07 A2999 RMK A01 T02750065  RH  026%=      5-min Rain = 0
KRO1 242041Z 25010KT 28/07 A2999 RMK A01 T02750071  RH  028%=      5-min Rain = 0
KRO1 242042Z 26010KT 28/07 A2999 RMK A01 T02770067  RH  026%=      5-min Rain = 0
KRO1 242043Z 25010KT 28/07 A2999 RMK A01 T02760069  RH  027%=      5-min Rain = 0
KRO1 242044Z 27005KT 27/07 A2999 RMK A01 T02710067  RH  027%=      5-min Rain = 0
KRO1 242045Z 29002KT 27/07 A2999 RMK A01 T02680068  RH  028%=      5-min Rain = 0
KRO1 242046Z 03001KT 27/07 A2999 RMK A01 T02660066  RH  028%=      5-min Rain = 0
KRO1 242047Z 00002KT 27/07 A2999 RMK A01 T02650072  RH  029%=      5-min Rain = 0
KRO1 242048Z 24004KT 27/07 A2999 RMK A01 T02650071  RH  029%=      5-min Rain = 0
KRO1 242049Z 23009KT 27/07 A2999 RMK A01 T02670068  RH  028%=      5-min Rain = 0
KRO1 242050Z 25010KT 27/07 A2999 RMK A01 T02730067  RH  027%=      5-min Rain = 0
KRO1 242051Z 24009KT 28/07 A2999 RMK A01 T02780067  RH  026%=      5-min Rain = 0
KRO1 242052Z 22007KT 28/06 A2999 RMK A01 T02770063  RH  026%=      5-min Rain = 0
KRO1 242053Z 24007KT 28/07 A2999 RMK A01 T02750065  RH  026%=      5-min Rain = 0
KRO1 242054Z 28009KT 28/06 A2999 RMK A01 T02750063  RH  026%=      5-min Rain = 0
KRO1 242055Z 27009KT 28/06 A2999 RMK A01 T02750061  RH  026%=      5-min Rain = 0
KRO1 242056Z 27006KT 27/06 A2999 RMK A01 T02740055  RH  025%=      5-min Rain = 0
KRO1 242057Z 25003KT 27/06 A2999 RMK A01 T02710055  RH  025%=      5-min Rain = 0
KRO1 242058Z 26004KT 27/06 A2999 RMK A01 T02710059  RH  026%=      5-min Rain = 0
KRO1 242059Z 25004KT 27/06 A2999 RMK A01 T02720062  RH  026%=      5-min Rain = 0
KRO1 242100Z 27003KT 27/06 A2999 RMK A01 T02730058  RH  025%=      5-min Rain = 0
KRO1 242101Z 27006KT 27/05 A2999 RMK A01 T02730054  RH  025%=      5-min Rain = 0
KRO1 242102Z 26008KT 27/05 A2998 RMK A01 T02740054  RH  024%=      5-min Rain = 0
KRO1 242103Z 28008KT 27/05 A2998 RMK A01 T02730051  RH  024%=      5-min Rain = 0
KRO1 242104Z 30008KT 27/05 A2998 RMK A01 T02720049  RH  024%=      5-min Rain = 0
KRO1 242105Z 27009G15KT 27/05 A2998 RMK A01 T02700048  RH  024%=      5-min Rain = 0
KRO1 242106Z 23009KT 27/06 A2998 RMK A01 T02720055  RH  025%=      5-min Rain = 0
KRO1 242107Z 22007KT 28/06 A2998 RMK A01 T02750055  RH  025%=      5-min Rain = 0
KRO1 242108Z 23007KT 28/06 A2998 RMK A01 T02750055  RH  025%=      5-min Rain = 0
KRO1 242109Z 24009KT 28/05 A2998 RMK A01 T02750054  RH  024%=      5-min Rain = 0
KRO1 242110Z 21010KT 28/05 A2998 RMK A01 T02760053  RH  024%=      5-min Rain = 0
KRO1 242111Z 22009KT 28/06 A2998 RMK A01 T02790055  RH  024%=      5-min Rain = 0
KRO1 242112Z 25004KT 28/05 A2998 RMK A01 T02810052  RH  023%=      5-min Rain = 0
KRO1 242113Z 24005KT 28/05 A2998 RMK A01 T02810051  RH  023%=      5-min Rain = 0
KRO1 242114Z 22007KT 28/05 A2998 RMK A01 T02800048  RH  023%=      5-min Rain = 0
KRO1 242115Z 21008KT 28/04 A2998 RMK A01 T02810044  RH  022%=      5-min Rain = 0
KRO1 242116Z 24011KT 28/04 A2998 RMK A01 T02800044  RH  022%=      5-min Rain = 0
KRO1 242117Z 25010KT 28/04 A2998 RMK A01 T02830044  RH  022%=      5-min Rain = 0
KRO1 242118Z 25009KT 29/04 A2998 RMK A01 T02850043  RH  021%=      5-min Rain = 0
KRO1 242119Z 27008KT 29/04 A2998 RMK A01 T02850039  RH  021%=      5-min Rain = 0
KRO1 242120Z 27010KT 28/03 A2998 RMK A01 T02820033  RH  020%=      5-min Rain = 0
KRO1 242121Z 26010KT 28/03 A2998 RMK A01 T02780033  RH  021%=      5-min Rain = 0
KRO1 242122Z 28008KT 28/03 A2998 RMK A01 T02780031  RH  020%=      5-min Rain = 0
KRO1 242123Z 26009KT 28/03 A2998 RMK A01 T02770032  RH  021%=      5-min Rain = 0
KRO1 242124Z 26009KT 28/03 A2998 RMK A01 T02790030  RH  020%=      5-min Rain = 0
KRO1 242125Z 26011KT 28/03 A2998 RMK A01 T02820029  RH  020%=      5-min Rain = 0
KRO1 242126Z 26012KT 28/03 A2998 RMK A01 T02840027  RH  019%=      5-min Rain = 0
KRO1 242127Z 26009KT 28/02 A2998 RMK A01 T02820024  RH  019%=      5-min Rain = 0
KRO1 242128Z 26009KT 28/03 A2998 RMK A01 T02790025  RH  019%=      5-min Rain = 0
KRO1 242129Z 26009KT 28/03 A2998 RMK A01 T02790026  RH  020%=      5-min Rain = 0
KRO1 242130Z 25007KT 28/02 A2998 RMK A01 T02800021  RH  019%=      5-min Rain = 0
KRO1 242131Z 24012KT 28/02 A2998 RMK A01 T02780020  RH  019%=      5-min Rain = 0
KRO1 242132Z 24012KT 28/02 A2998 RMK A01 T02770024  RH  020%=      5-min Rain = 0
KRO1 242133Z 24012KT 28/03 A2998 RMK A01 T02800029  RH  020%=      5-min Rain = 0
KRO1 242134Z 27012KT 28/03 A2998 RMK A01 T02820026  RH  019%=      5-min Rain = 0
KRO1 242135Z 27007KT 28/01 A2998 RMK A01 T02800012  RH  018%=      5-min Rain = 0
KRO1 242136Z 26005KT 28/02 A2998 RMK A01 T02770021  RH  019%=      5-min Rain = 0
KRO1 242137Z 25013KT 28/03 A2998 RMK A01 T02760027  RH  020%=      5-min Rain = 0
KRO1 242138Z 26013KT 28/03 A2998 RMK A01 T02760029  RH  020%=      5-min Rain = 0
KRO1 242139Z 28010KT 28/03 A2998 RMK A01 T02760029  RH  020%=      5-min Rain = 0
KRO1 242140Z 29010KT 28/03 A2998 RMK A01 T02760025  RH  020%=      5-min Rain = 0
KRO1 242141Z 29010KT 28/02 A2998 RMK A01 T02750015  RH  019%=      5-min Rain = 0
KRO1 242142Z 27008KT 28/02 A2998 RMK A01 T02750015  RH  019%=      5-min Rain = 0
KRO1 242143Z 29007KT 28/02 A2998 RMK A01 T02750018  RH  019%=      5-min Rain = 0
KRO1 242144Z 29007KT 28/02 A2998 RMK A01 T02750022  RH  019%=      5-min Rain = 0
KRO1 242145Z 31006KT 28/02 A2998 RMK A01 T02770024  RH  020%=      5-min Rain = 0
KRO1 242146Z 30007KT 28/02 A2998 RMK A01 T02790021  RH  019%=      5-min Rain = 0
KRO1 242147Z 30006KT 28/02 A2998 RMK A01 T02770018  RH  019%=      5-min Rain = 0
KRO1 242148Z 29006KT 28/02 A2998 RMK A01 T02750017  RH  019%=      5-min Rain = 0
KRO1 242149Z 29005KT 27/02 A2998 RMK A01 T02740019  RH  019%=      5-min Rain = 0
KRO1 242150Z 28010KT 27/02 A2998 RMK A01 T02740022  RH  020%=      5-min Rain = 0
KRO1 242151Z 26009KT 28/03 A2998 RMK A01 T02760028  RH  020%=      5-min Rain = 0
KRO1 242152Z 24006KT 28/03 A2998 RMK A01 T02770026  RH  020%=      5-min Rain = 0
KRO1 242153Z 26007KT 28/03 A2998 RMK A01 T02760029  RH  020%=      5-min Rain = 0
KRO1 242154Z 26006KT 28/03 A2998 RMK A01 T02750029  RH  020%=      5-min Rain = 0
KRO1 242155Z 26005KT 28/03 A2998 RMK A01 T02760029  RH  020%=      5-min Rain = 0
KRO1 242156Z 25005KT 28/03 A2998 RMK A01 T02750028  RH  020%=      5-min Rain = 0
KRO1 242157Z 28006KT 28/03 A2998 RMK A01 T02750031  RH  021%=      5-min Rain = 0
KRO1 242158Z 27008KT 28/03 A2998 RMK A01 T02750034  RH  021%=      5-min Rain = 0
KRO1 242159Z 28009KT 28/03 A2998 RMK A01 T02750034  RH  021%=      5-min Rain = 0
KRO1 242200Z 29006KT 28/03 A2998 RMK A01 T02750034  RH  021%=      5-min Rain = 0
KRO1 242201Z 28007KT 27/03 A2998 RMK A01 T02740034  RH  021%=      5-min Rain = 0
KRO1 242202Z 26011KT 28/03 A2998 RMK A01 T02750027  RH  020%=      5-min Rain = 0
KRO1 242203Z 26009KT 28/02 A2998 RMK A01 T02760015  RH  018%=      5-min Rain = 0
KRO1 242204Z 26008KT 28/02 A2998 RMK A01 T02760015  RH  018%=      5-min Rain = 0
KRO1 242205Z 27006KT 28/01 A2998 RMK A01 T02770014  RH  018%=      5-min Rain = 0
KRO1 242206Z 28006KT 28/01 A2997 RMK A01 T02770011  RH  018%=      5-min Rain = 0
KRO1 242207Z 26008KT 28/02 A2997 RMK A01 T02770017  RH  019%=      5-min Rain = 0
KRO1 242208Z 24006KT 28/02 A2998 RMK A01 T02770018  RH  019%=      5-min Rain = 0
KRO1 242209Z 25005KT 28/02 A2998 RMK A01 T02760024  RH  020%=      5-min Rain = 0
KRO1 242210Z 26005KT 28/02 A2998 RMK A01 T02750023  RH  020%=      5-min Rain = 0
KRO1 242211Z 27004KT 27/02 A2998 RMK A01 T02740021  RH  019%=      5-min Rain = 0
KRO1 242212Z 26005KT 27/02 A2998 RMK A01 T02730023  RH  020%=      5-min Rain = 0
KRO1 242213Z 28005KT 27/02 A2998 RMK A01 T02740023  RH  020%=      5-min Rain = 0
KRO1 242214Z 27005KT 28/02 A2998 RMK A01 T02750021  RH  019%=      5-min Rain = 0
KRO1 242215Z 26008KT 28/03 A2998 RMK A01 T02750031  RH  021%=      5-min Rain = 0
KRO1 242216Z 24010KT 28/03 A2997 RMK A01 T02760031  RH  021%=      5-min Rain = 0
KRO1 242217Z 25008KT 28/03 A2997 RMK A01 T02760026  RH  020%=      5-min Rain = 0
KRO1 242218Z 25006KT 28/03 A2997 RMK A01 T02750029  RH  020%=      5-min Rain = 0
KRO1 242219Z 30009KT 28/03 A2998 RMK A01 T02750032  RH  021%=      5-min Rain = 0
KRO1 242220Z 30009KT 28/03 A2998 RMK A01 T02780030  RH  020%=      5-min Rain = 0
KRO1 242221Z 32011G19KT 28/03 A2998 RMK A01 T02800025  RH  019%=      5-min Rain = 0
KRO1 242222Z 32015KT 28/03 A2998 RMK A01 T02790032  RH  020%=      5-min Rain = 0
KRO1 242223Z 33014KT 28/05 A2998 RMK A01 T02790054  RH  024%=      5-min Rain = 0
KRO1 242224Z 32010KT 28/04 A2998 RMK A01 T02760035  RH  021%=      5-min Rain = 0
KRO1 242225Z 31010KT 28/01 A2998 RMK A01 T02760007  RH  018%=      5-min Rain = 0
KRO1 242226Z 31008KT 28/M00 A2998 RMK A01 T02771001  RH  016%=      5-min Rain = 0
KRO1 242227Z 34007KT 28/03 A2998 RMK A01 T02760025  RH  020%=      5-min Rain = 0
KRO1 242228Z 00006KT 27/06 A2998 RMK A01 T02730063  RH  026%=      5-min Rain = 0
KRO1 242229Z 00007KT 27/06 A2998 RMK A01 T02700064  RH  027%=      5-min Rain = 0
KRO1 242230Z 36008KT 27/06 A2998 RMK A01 T02670063  RH  027%=      5-min Rain = 0
KRO1 242231Z 35006KT 27/06 A2998 RMK A01 T02650061  RH  027%=      5-min Rain = 0
KRO1 242232Z 33004KT 26/06 A2998 RMK A01 T02640063  RH  028%=      5-min Rain = 0
KRO1 242233Z 32004KT 26/06 A2998 RMK A01 T02620061  RH  028%=      5-min Rain = 0
KRO1 242234Z 36006KT 26/06 A2998 RMK A01 T02610062  RH  028%=      5-min Rain = 0
KRO1 242235Z 01012KT 26/07 A2998 RMK A01 T02600065  RH  029%=      5-min Rain = 0
KRO1 242236Z 01011KT 26/07 A2998 RMK A01 T02580066  RH  029%=      5-min Rain = 0
KRO1 242237Z 01011KT 26/07 A2998 RMK A01 T02580066  RH  029%=      5-min Rain = 0
KRO1 242238Z 00012KT 26/07 A2998 RMK A01 T02570066  RH  030%=      5-min Rain = 0
KRO1 242239Z 01013KT 26/07 A2998 RMK A01 T02570065  RH  029%=      5-min Rain = 0
KRO1 242240Z 01014KT 26/06 A2998 RMK A01 T02570064  RH  029%=      5-min Rain = 0
KRO1 242241Z 01013KT 26/06 A2998 RMK A01 T02570064  RH  029%=      5-min Rain = 0
KRO1 242242Z 00011KT 26/06 A2998 RMK A01 T02560064  RH  029%=      5-min Rain = 0
KRO1 242243Z 35010KT 26/06 A2998 RMK A01 T02560064  RH  029%=      5-min Rain = 0
KRO1 242244Z 01010KT 26/07 A2998 RMK A01 T02560065  RH  029%=      5-min Rain = 0
KRO1 242245Z 01012KT 26/07 A2998 RMK A01 T02580067  RH  030%=      5-min Rain = 0
KRO1 242246Z 01012KT 26/07 A2998 RMK A01 T02580067  RH  029%=      5-min Rain = 0
KRO1 242247Z 01012KT 26/07 A2998 RMK A01 T02570066  RH  030%=      5-min Rain = 0
KRO1 242248Z 01012KT 26/07 A2998 RMK A01 T02560066  RH  030%=      5-min Rain = 0
KRO1 242249Z 00014KT 26/07 A2998 RMK A01 T02570065  RH  029%=      5-min Rain = 0
KRO1 242250Z 01013KT 26/06 A2998 RMK A01 T02580064  RH  029%=      5-min Rain = 0
KRO1 242251Z 01012KT 26/06 A2998 RMK A01 T02580064  RH  029%=      5-min Rain = 0
KRO1 242252Z 01011KT 26/06 A2998 RMK A01 T02570064  RH  029%=      5-min Rain = 0
KRO1 242253Z 01014KT 26/07 A2998 RMK A01 T02570066  RH  030%=      5-min Rain = 0
KRO1 242254Z 01014KT 26/07 A2998 RMK A01 T02560066  RH  030%=      5-min Rain = 0
KRO1 242255Z 01013KT 26/07 A2998 RMK A01 T02560066  RH  030%=      5-min Rain = 0
KRO1 242256Z 01013KT 26/07 A2998 RMK A01 T02560065  RH  030%=      5-min Rain = 0
KRO1 242257Z 01013KT 26/07 A2998 RMK A01 T02550067  RH  030%=      5-min Rain = 0
KRO1 242258Z 01013KT 26/07 A2998 RMK A01 T02550067  RH  030%=      5-min Rain = 0
KRO1 242259Z 02013KT 26/07 A2998 RMK A01 T02550069  RH  031%=      5-min Rain = 0
KRO1 242300Z 01013KT 26/07 A2998 RMK A01 T02560070  RH  031%=      5-min Rain = 0
KRO1 242301Z 02015KT 26/07 A2998 RMK A01 T02580069  RH  030%=      5-min Rain = 0
KRO1 242302Z 01015KT 26/07 A2998 RMK A01 T02560067  RH  030%=      5-min Rain = 0
KRO1 242303Z 01017KT 25/07 A2998 RMK A01 T02540067  RH  030%=      5-min Rain = 0
KRO1 242304Z 01017KT 25/07 A2998 RMK A01 T02510065  RH  030%=      5-min Rain = 0
KRO1 242305Z 01016KT 25/07 A2998 RMK A01 T02480065  RH  031%=      5-min Rain = 0
KRO1 242306Z 01015KT 25/07 A2999 RMK A01 T02470065  RH  031%=      5-min Rain = 0
KRO1 242307Z 01014KT 25/07 A2999 RMK A01 T02460065  RH  031%=      5-min Rain = 0
KRO1 242308Z 01014KT 25/07 A2999 RMK A01 T02470065  RH  031%=      5-min Rain = 0
KRO1 242309Z 01014KT 25/06 A2999 RMK A01 T02460063  RH  031%=      5-min Rain = 0
KRO1 242310Z 01013KT 25/06 A2999 RMK A01 T02460064  RH  031%=      5-min Rain = 0
KRO1 242311Z 01011KT 25/06 A2999 RMK A01 T02450064  RH  031%=      5-min Rain = 0
KRO1 242312Z 01012KT 25/06 A2999 RMK A01 T02450063  RH  031%=      5-min Rain = 0
KRO1 242313Z 01012KT 25/06 A2999 RMK A01 T02450062  RH  031%=      5-min Rain = 0
KRO1 242314Z 01012KT 24/06 A2999 RMK A01 T02440062  RH  031%=      5-min Rain = 0
KRO1 242315Z 01013KT 24/06 A2999 RMK A01 T02440063  RH  031%=      5-min Rain = 0
KRO1 242316Z 01013KT 25/06 A2998 RMK A01 T02450062  RH  031%=      5-min Rain = 0
KRO1 242317Z 01013KT 25/06 A2998 RMK A01 T02450062  RH  031%=      5-min Rain = 0
KRO1 242318Z 01012KT 25/06 A2999 RMK A01 T02450061  RH  031%=      5-min Rain = 0
KRO1 242319Z 01011KT 24/06 A2999 RMK A01 T02440063  RH  031%=      5-min Rain = 0
KRO1 242320Z 02013KT 25/06 A2999 RMK A01 T02450064  RH  031%=      5-min Rain = 0
KRO1 242321Z 01012KT 25/06 A2999 RMK A01 T02450064  RH  031%=      5-min Rain = 0
KRO1 242322Z 02011KT 25/07 A2999 RMK A01 T02460065  RH  031%=      5-min Rain = 0
KRO1 242323Z 02012KT 25/06 A2999 RMK A01 T02470064  RH  031%=      5-min Rain = 0
KRO1 242324Z 02013KT 25/06 A2999 RMK A01 T02470062  RH  030%=      5-min Rain = 0
KRO1 242325Z 02013KT 25/06 A2999 RMK A01 T02450061  RH  030%=      5-min Rain = 0
KRO1 242326Z 02013KT 25/06 A2999 RMK A01 T02450061  RH  031%=      5-min Rain = 0
KRO1 242327Z 02014KT 25/06 A2999 RMK A01 T02450061  RH  031%=      5-min Rain = 0
KRO1 242328Z 01013KT 25/06 A2999 RMK A01 T02450060  RH  031%=      5-min Rain = 0
KRO1 242329Z 01013KT 24/06 A2999 RMK A01 T02440059  RH  030%=      5-min Rain = 0
KRO1 242330Z 01014KT 24/06 A2999 RMK A01 T02430059  RH  031%=      5-min Rain = 0
KRO1 242331Z 01013KT 24/06 A2999 RMK A01 T02430059  RH  031%=      5-min Rain = 0
KRO1 242332Z 01013KT 24/06 A2999 RMK A01 T02420060  RH  031%=      5-min Rain = 0
KRO1 242333Z 01013KT 24/06 A30 RMK A01 T02420061  RH  031%=      5-min Rain = 0
KRO1 242334Z 01011KT 24/06 A30 RMK A01 T02420060  RH  031%=      5-min Rain = 0
KRO1 242335Z 01011KT 24/06 A30 RMK A01 T02420061  RH  031%=      5-min Rain = 0
KRO1 242336Z 01013KT 24/06 A2999 RMK A01 T02430059  RH  031%=      5-min Rain = 0
KRO1 242337Z 02012KT 24/06 A2999 RMK A01 T02430058  RH  030%=      5-min Rain = 0
KRO1 242338Z 02012KT 24/06 A2999 RMK A01 T02420058  RH  031%=      5-min Rain = 0
KRO1 242339Z 02011KT 24/06 A2999 RMK A01 T02410058  RH  031%=      5-min Rain = 0
KRO1 242340Z 02010KT 24/06 A2999 RMK A01 T02410060  RH  031%=      5-min Rain = 0
KRO1 242341Z 02011KT 24/06 A2999 RMK A01 T02420061  RH  031%=      5-min Rain = 0
KRO1 242342Z 02013KT 24/06 A2999 RMK A01 T02420060  RH  031%=      5-min Rain = 0
KRO1 242343Z 02011KT 24/06 A2999 RMK A01 T02420060  RH  031%=      5-min Rain = 0
KRO1 242344Z 02012KT 24/06 A2999 RMK A01 T02420060  RH  031%=      5-min Rain = 0
KRO1 242345Z 01010KT 24/06 A2999 RMK A01 T02420061  RH  031%=      5-min Rain = 0
KRO1 242346Z 01012KT 24/06 A2999 RMK A01 T02420060  RH  031%=      5-min Rain = 0
KRO1 242347Z 02012KT 24/06 A2999 RMK A01 T02420060  RH  031%=      5-min Rain = 0
KRO1 242348Z 01012KT 24/06 A2999 RMK A01 T02410059  RH  031%=      5-min Rain = 0
KRO1 242349Z 02011KT 24/06 A2999 RMK A01 T02410059  RH  031%=      5-min Rain = 0
KRO1 242350Z 02011KT 24/06 A2999 RMK A01 T02410061  RH  031%=      5-min Rain = 0
KRO1 242351Z 01011KT 24/06 A2999 RMK A01 T02410060  RH  031%=      5-min Rain = 0
KRO1 242352Z 01012KT 24/06 A2999 RMK A01 T02410060  RH  031%=      5-min Rain = 0
KRO1 242353Z 01013KT 24/06 A2999 RMK A01 T02410060  RH  031%=      5-min Rain = 0
KRO1 242354Z 01012KT 24/06 A2999 RMK A01 T02410060  RH  031%=      5-min Rain = 0
KRO1 242355Z 02012KT 24/06 A2999 RMK A01 T02400062  RH  032%=      5-min Rain = 0
KRO1 242356Z 02012KT 24/06 A2999 RMK A01 T02400062  RH  032%=      5-min Rain = 0
KRO1 242357Z 02012KT 24/06 A2999 RMK A01 T02400061  RH  032%=      5-min Rain = 0
KRO1 242358Z 02011KT 24/06 A2999 RMK A01 T02390061  RH  032%=      5-min Rain = 0
KRO1 242359Z 01013KT 24/06 A2999 RMK A01 T02390061  RH  032%=      5-min Rain = 0
KRO1 250000Z 01012KT 24/06 A2999 RMK A01 T02390060  RH  032%=      5-min Rain = 0
KRO1 250001Z 01013KT 24/06 A2999 RMK A01 T02380060  RH  032%=      5-min Rain = 0
KRO1 250002Z 01013KT 24/06 A30 RMK A01 T02380060  RH  032%=      5-min Rain = 0
KRO1 250003Z 01011KT 24/06 A30 RMK A01 T02380060  RH  032%=      5-min Rain = 0
KRO1 250004Z 01012KT 24/06 A30 RMK A01 T02380060  RH  032%=      5-min Rain = 0
KRO1 250005Z 01011KT 24/06 A30 RMK A01 T02380060  RH  032%=      5-min Rain = 0
KRO1 250006Z 01012KT 24/06 A30 RMK A01 T02380061  RH  032%=      5-min Rain = 0
KRO1 250007Z 02011KT 24/06 A30 RMK A01 T02370060  RH  032%=      5-min Rain = 0
KRO1 250008Z 02011KT 24/06 A30 RMK A01 T02370060  RH  032%=      5-min Rain = 0
KRO1 250009Z 01011KT 24/06 A30 RMK A01 T02360060  RH  032%=      5-min Rain = 0
KRO1 250010Z 01011KT 24/06 A30 RMK A01 T02360061  RH  032%=      5-min Rain = 0
KRO1 250011Z 01013KT 24/06 A30 RMK A01 T02350060  RH  032%=      5-min Rain = 0
KRO1 250012Z 02012KT 23/06 A30 RMK A01 T02340059  RH  032%=      5-min Rain = 0
KRO1 250013Z 02012KT 23/06 A30 RMK A01 T02330059  RH  032%=      5-min Rain = 0
KRO1 250014Z 02011KT 23/06 A30 RMK A01 T02320059  RH  033%=      5-min Rain = 0
KRO1 250015Z 02010KT 23/06 A30 RMK A01 T02320059  RH  033%=      5-min Rain = 0
KRO1 250016Z 02011KT 23/06 A30 RMK A01 T02310060  RH  033%=      5-min Rain = 0
KRO1 250017Z 02010KT 23/06 A30 RMK A01 T02310059  RH  033%=      5-min Rain = 0
KRO1 250018Z 02009KT 23/06 A30 RMK A01 T02310060  RH  033%=      5-min Rain = 0
KRO1 250019Z 02009KT 23/06 A30 RMK A01 T02310061  RH  033%=      5-min Rain = 0
KRO1 250020Z 02010KT 23/06 A30 RMK A01 T02310060  RH  033%=      5-min Rain = 0
KRO1 250021Z 03008KT 23/06 A30 RMK A01 T02310060  RH  033%=      5-min Rain = 0
KRO1 250022Z 03009KT 23/06 A30 RMK A01 T02310060  RH  033%=      5-min Rain = 0
KRO1 250023Z 03010KT 23/06 A30 RMK A01 T02310060  RH  033%=      5-min Rain = 0
KRO1 250024Z 03009KT 23/06 A30 RMK A01 T02300059  RH  033%=      5-min Rain = 0
KRO1 250025Z 03009KT 23/06 A30 RMK A01 T02300059  RH  033%=      5-min Rain = 0
KRO1 250026Z 03009KT 23/06 A30 RMK A01 T02290059  RH  033%=      5-min Rain = 0
KRO1 250027Z 03010KT 23/06 A30 RMK A01 T02300059  RH  033%=      5-min Rain = 0
KRO1 250028Z 03010KT 23/06 A30 RMK A01 T02290059  RH  033%=      5-min Rain = 0
KRO1 250029Z 03010KT 23/06 A30 RMK A01 T02290059  RH  033%=      5-min Rain = 0
KRO1 250030Z 02009KT 23/06 A30 RMK A01 T02290059  RH  033%=      5-min Rain = 0
KRO1 250031Z 02010KT 23/06 A30 RMK A01 T02280060  RH  034%=      5-min Rain = 0
KRO1 250032Z 02010KT 23/06 A30 RMK A01 T02280060  RH  034%=      5-min Rain = 0
KRO1 250033Z 02011KT 23/06 A30 RMK A01 T02280060  RH  034%=      5-min Rain = 0
KRO1 250034Z 02012KT 23/06 A30 RMK A01 T02280059  RH  034%=      5-min Rain = 0
KRO1 250035Z 02012KT 23/06 A30 RMK A01 T02270059  RH  034%=      5-min Rain = 0
KRO1 250036Z 03011KT 23/06 A30 RMK A01 T02270059  RH  034%=      5-min Rain = 0
KRO1 250037Z 02012KT 23/06 A30 RMK A01 T02270060  RH  034%=      5-min Rain = 0
KRO1 250038Z 03010KT 23/06 A30 RMK A01 T02260059  RH  034%=      5-min Rain = 0
KRO1 250039Z 03011KT 23/06 A30 RMK A01 T02250059  RH  034%=      5-min Rain = 0
KRO1 250040Z 02011KT 23/06 A30 RMK A01 T02250059  RH  034%=      5-min Rain = 0
KRO1 250041Z 03011KT 22/06 A30 RMK A01 T02240059  RH  034%=      5-min Rain = 0
KRO1 250042Z 03011KT 22/06 A30 RMK A01 T02230059  RH  034%=      5-min Rain = 0
KRO1 250043Z 03010KT 22/06 A30 RMK A01 T02230058  RH  034%=      5-min Rain = 0
KRO1 250044Z 03010KT 22/06 A30 RMK A01 T02230058  RH  034%=      5-min Rain = 0
KRO1 250045Z 03009KT 22/06 A30 RMK A01 T02220058  RH  035%=      5-min Rain = 0
KRO1 250046Z 03009KT 22/06 A30 RMK A01 T02210058  RH  035%=      5-min Rain = 0
KRO1 250047Z 03008KT 22/06 A30 RMK A01 T02200058  RH  035%=      5-min Rain = 0
KRO1 250048Z 03008KT 22/06 A30 RMK A01 T02180057  RH  035%=      5-min Rain = 0
KRO1 250049Z 03008KT 22/06 A30 RMK A01 T02180057  RH  035%=      5-min Rain = 0
KRO1 250050Z 03009KT 22/06 A30 RMK A01 T02170058  RH  035%=      5-min Rain = 0
KRO1 250051Z 03009KT 22/06 A30 RMK A01 T02160058  RH  036%=      5-min Rain = 0
KRO1 250052Z 03008KT 22/06 A30 RMK A01 T02150058  RH  036%=      5-min Rain = 0
KRO1 250053Z 03009KT 22/06 A30 RMK A01 T02150058  RH  036%=      5-min Rain = 0
KRO1 250054Z 03009KT 21/06 A3001 RMK A01 T02140058  RH  036%=      5-min Rain = 0
KRO1 250055Z 03009KT 21/06 A3001 RMK A01 T02140058  RH  036%=      5-min Rain = 0
KRO1 250056Z 03009KT 21/06 A3001 RMK A01 T02130058  RH  036%=      5-min Rain = 0
KRO1 250057Z 02009KT 21/06 A3001 RMK A01 T02130058  RH  036%=      5-min Rain = 0
KRO1 250058Z 03010KT 21/06 A3001 RMK A01 T02130057  RH  036%=      5-min Rain = 0
KRO1 250059Z 03010KT 21/06 A3001 RMK A01 T02130057  RH  036%=      5-min Rain = 0
KRO1 250100Z 03010KT 21/06 A3001 RMK A01 T02130057  RH  036%=      5-min Rain = 0
KRO1 250101Z 03010KT 21/06 A3001 RMK A01 T02120057  RH  036%=      5-min Rain = 0
KRO1 250102Z 03010KT 21/06 A3001 RMK A01 T02120057  RH  036%=      5-min Rain = 0
KRO1 250103Z 03009KT 21/06 A3001 RMK A01 T02120057  RH  036%=      5-min Rain = 0
KRO1 250104Z 03009KT 21/06 A3001 RMK A01 T02110057  RH  037%=      5-min Rain = 0
KRO1 250105Z 03009KT 21/06 A3001 RMK A01 T02090057  RH  037%=      5-min Rain = 0
KRO1 250106Z 03009KT 21/06 A3001 RMK A01 T02080057  RH  037%=      5-min Rain = 0
KRO1 250107Z 03009KT 21/06 A3001 RMK A01 T02070057  RH  037%=      5-min Rain = 0
KRO1 250108Z 03009KT 21/06 A3001 RMK A01 T02070057  RH  038%=      5-min Rain = 0
KRO1 250109Z 03009KT 21/06 A3001 RMK A01 T02070058  RH  038%=      5-min Rain = 0
KRO1 250110Z 03009KT 21/06 A3001 RMK A01 T02060058  RH  038%=      5-min Rain = 0
KRO1 250111Z 03010KT 21/06 A3001 RMK A01 T02050058  RH  038%=      5-min Rain = 0
KRO1 250112Z 03010KT 21/06 A3001 RMK A01 T02050058  RH  038%=      5-min Rain = 0
KRO1 250113Z 03009KT 20/06 A3001 RMK A01 T02040058  RH  038%=      5-min Rain = 0
KRO1 250114Z 03010KT 20/06 A3001 RMK A01 T02040058  RH  039%=      5-min Rain = 0
KRO1 250115Z 03010KT 20/06 A3001 RMK A01 T02040058  RH  039%=      5-min Rain = 0
KRO1 250116Z 03011KT 20/06 A3001 RMK A01 T02030058  RH  039%=      5-min Rain = 0
KRO1 250117Z 03010KT 20/06 A3001 RMK A01 T02030058  RH  039%=      5-min Rain = 0
KRO1 250118Z 03010KT 20/06 A3001 RMK A01 T02020058  RH  039%=      5-min Rain = 0
KRO1 250119Z 02010KT 20/06 A3001 RMK A01 T02020058  RH  039%=      5-min Rain = 0
KRO1 250120Z 03009KT 20/06 A3001 RMK A01 T02020058  RH  039%=      5-min Rain = 0
KRO1 250121Z 03009KT 20/06 A3001 RMK A01 T02010059  RH  039%=      5-min Rain = 0
KRO1 250122Z 03009KT 20/06 A3001 RMK A01 T02010058  RH  039%=      5-min Rain = 0
KRO1 250123Z 03008KT 20/06 A3001 RMK A01 T02000058  RH  040%=      5-min Rain = 0
KRO1 250124Z 03009KT 20/06 A3001 RMK A01 T01990058  RH  040%=      5-min Rain = 0
KRO1 250125Z 03009KT 20/06 A3001 RMK A01 T01990058  RH  040%=      5-min Rain = 0
KRO1 250126Z 03009KT 20/06 A3001 RMK A01 T01980057  RH  040%=      5-min Rain = 0
KRO1 250127Z 03009KT 20/06 A3001 RMK A01 T01970057  RH  040%=      5-min Rain = 0
KRO1 250128Z 03009KT 20/06 A3001 RMK A01 T01970057  RH  040%=      5-min Rain = 0
KRO1 250129Z 03009KT 20/06 A3001 RMK A01 T01960057  RH  040%=      5-min Rain = 0
KRO1 250130Z 03009KT 20/06 A3001 RMK A01 T01950057  RH  040%=      5-min Rain = 0
KRO1 250131Z 03009KT 20/06 A3001 RMK A01 T01950057  RH  041%=      5-min Rain = 0
KRO1 250132Z 03009KT 19/06 A3001 RMK A01 T01940057  RH  041%=      5-min Rain = 0
KRO1 250133Z 03009KT 19/06 A3001 RMK A01 T01940057  RH  041%=      5-min Rain = 0
KRO1 250134Z 03009KT 19/06 A3001 RMK A01 T01940057  RH  041%=      5-min Rain = 0
KRO1 250135Z 03009KT 19/06 A3001 RMK A01 T01940057  RH  041%=      5-min Rain = 0
KRO1 250136Z 03009KT 19/06 A3001 RMK A01 T01930057  RH  041%=      5-min Rain = 0
KRO1 250137Z 03009KT 19/06 A3001 RMK A01 T01930057  RH  041%=      5-min Rain = 0
KRO1 250138Z 03009KT 19/06 A3001 RMK A01 T01920057  RH  041%=      5-min Rain = 0
KRO1 250139Z 03008KT 19/06 A3001 RMK A01 T01920056  RH  041%=      5-min Rain = 0
KRO1 250140Z 04008KT 19/06 A3001 RMK A01 T01910057  RH  041%=      5-min Rain = 0
KRO1 250141Z 04008KT 19/06 A3001 RMK A01 T01910056  RH  041%=      5-min Rain = 0
KRO1 250142Z 04008KT 19/06 A3001 RMK A01 T01900057  RH  041%=      5-min Rain = 0
KRO1 250143Z 04008KT 19/06 A3001 RMK A01 T01900056  RH  042%=      5-min Rain = 0
KRO1 250144Z 05008KT 19/06 A3001 RMK A01 T01890056  RH  042%=      5-min Rain = 0
KRO1 250145Z 05008KT 19/06 A3001 RMK A01 T01870056  RH  042%=      5-min Rain = 0
KRO1 250146Z 05007KT 19/06 A3001 RMK A01 T01860055  RH  042%=      5-min Rain = 0
KRO1 250147Z 05006KT 19/06 A3001 RMK A01 T01850055  RH  042%=      5-min Rain = 0
KRO1 250148Z 05006KT 18/06 A3001 RMK A01 T01830055  RH  043%=      5-min Rain = 0
KRO1 250149Z 05006KT 18/05 A3001 RMK A01 T01810053  RH  043%=      5-min Rain = 0
KRO1 250150Z 05006KT 18/05 A3001 RMK A01 T01790053  RH  043%=      5-min Rain = 0
KRO1 250151Z 05006KT 18/05 A3001 RMK A01 T01780053  RH  044%=      5-min Rain = 0
KRO1 250152Z 05007KT 18/05 A3001 RMK A01 T01760054  RH  044%=      5-min Rain = 0
KRO1 250153Z 04006KT 18/05 A3001 RMK A01 T01760054  RH  045%=      5-min Rain = 0
KRO1 250154Z 04007KT 18/05 A3002 RMK A01 T01760054  RH  045%=      5-min Rain = 0
KRO1 250155Z 04007KT 18/06 A3002 RMK A01 T01770055  RH  045%=      5-min Rain = 0
KRO1 250156Z 04007KT 18/06 A3002 RMK A01 T01780055  RH  044%=      5-min Rain = 0
KRO1 250157Z 04008KT 18/06 A3002 RMK A01 T01780055  RH  044%=      5-min Rain = 0
KRO1 250158Z 04008KT 18/06 A3002 RMK A01 T01790055  RH  044%=      5-min Rain = 0
KRO1 250159Z 04009KT 18/05 A3002 RMK A01 T01790054  RH  044%=      5-min Rain = 0
KRO1 250200Z 04009KT 18/05 A3002 RMK A01 T01790054  RH  044%=      5-min Rain = 0
KRO1 250201Z 04009KT 18/05 A3002 RMK A01 T01790054  RH  044%=      5-min Rain = 0
KRO1 250202Z 04009KT 18/05 A3002 RMK A01 T01790054  RH  044%=      5-min Rain = 0
KRO1 250203Z 04009KT 18/05 A3002 RMK A01 T01790054  RH  044%=      5-min Rain = 0
KRO1 250204Z 04009KT 18/05 A3003 RMK A01 T01780053  RH  044%=      5-min Rain = 0
KRO1 250205Z 04008KT 18/05 A3003 RMK A01 T01780053  RH  044%=      5-min Rain = 0
KRO1 250206Z 04008KT 18/05 A3003 RMK A01 T01780053  RH  044%=      5-min Rain = 0
KRO1 250207Z 04008KT 18/05 A3003 RMK A01 T01770053  RH  044%=      5-min Rain = 0
KRO1 250208Z 04008KT 18/05 A3003 RMK A01 T01760053  RH  044%=      5-min Rain = 0
KRO1 250209Z 04008KT 18/05 A3003 RMK A01 T01760053  RH  044%=      5-min Rain = 0
KRO1 250210Z 04008KT 18/05 A3003 RMK A01 T01750053  RH  045%=      5-min Rain = 0
KRO1 250211Z 05007KT 17/05 A3003 RMK A01 T01740053  RH  045%=      5-min Rain = 0
KRO1 250212Z 05008KT 17/05 A3003 RMK A01 T01740053  RH  045%=      5-min Rain = 0
KRO1 250213Z 05008KT 17/05 A3003 RMK A01 T01730053  RH  045%=      5-min Rain = 0
KRO1 250214Z 05008KT 17/05 A3003 RMK A01 T01720054  RH  046%=      5-min Rain = 0
KRO1 250215Z 05009KT 17/05 A3003 RMK A01 T01720054  RH  046%=      5-min Rain = 0
KRO1 250216Z 05008KT 17/05 A3003 RMK A01 T01710054  RH  046%=      5-min Rain = 0
KRO1 250217Z 05008KT 17/05 A3003 RMK A01 T01710054  RH  046%=      5-min Rain = 0
KRO1 250218Z 05008KT 17/05 A3003 RMK A01 T01710054  RH  046%=      5-min Rain = 0
KRO1 250219Z 05008KT 17/05 A3003 RMK A01 T01710053  RH  046%=      5-min Rain = 0
KRO1 250220Z 05008KT 17/05 A3003 RMK A01 T01700053  RH  046%=      5-min Rain = 0
KRO1 250221Z 05008KT 17/05 A3003 RMK A01 T01710053  RH  046%=      5-min Rain = 0
KRO1 250222Z 05008KT 17/05 A3003 RMK A01 T01710053  RH  046%=      5-min Rain = 0
KRO1 250223Z 05008KT 17/05 A3003 RMK A01 T01710053  RH  046%=      5-min Rain = 0
KRO1 250224Z 05008KT 17/05 A3003 RMK A01 T01700053  RH  046%=      5-min Rain = 0
KRO1 250225Z 05007KT 17/05 A3003 RMK A01 T01700053  RH  046%=      5-min Rain = 0
KRO1 250226Z 06007KT 17/05 A3003 RMK A01 T01700053  RH  046%=      5-min Rain = 0
KRO1 250227Z 06007KT 17/05 A3003 RMK A01 T01690053  RH  046%=      5-min Rain = 0
KRO1 250228Z 06007KT 17/05 A3004 RMK A01 T01690052  RH  046%=      5-min Rain = 0
KRO1 250229Z 06007KT 17/05 A3004 RMK A01 T01680052  RH  046%=      5-min Rain = 0
KRO1 250230Z 06007KT 17/05 A3004 RMK A01 T01670051  RH  046%=      5-min Rain = 0
KRO1 250231Z 06007KT 17/05 A3004 RMK A01 T01660051  RH  047%=      5-min Rain = 0
KRO1 250232Z 06007KT 17/05 A3004 RMK A01 T01650051  RH  047%=      5-min Rain = 0
KRO1 250233Z 06006KT 16/05 A3004 RMK A01 T01640051  RH  047%=      5-min Rain = 0
KRO1 250234Z 06006KT 16/05 A3004 RMK A01 T01630051  RH  047%=      5-min Rain = 0
KRO1 250235Z 06006KT 16/05 A3004 RMK A01 T01620051  RH  048%=      5-min Rain = 0
KRO1 250236Z 06006KT 16/05 A3004 RMK A01 T01620052  RH  048%=      5-min Rain = 0
KRO1 250237Z 06006KT 16/05 A3004 RMK A01 T01620052  RH  048%=      5-min Rain = 0
KRO1 250238Z 06007KT 16/05 A3004 RMK A01 T01620052  RH  048%=      5-min Rain = 0
KRO1 250239Z 05006KT 16/05 A3004 RMK A01 T01620052  RH  048%=      5-min Rain = 0
KRO1 250240Z 05007KT 16/05 A3004 RMK A01 T01620053  RH  048%=      5-min Rain = 0
KRO1 250241Z 05007KT 16/05 A3004 RMK A01 T01620053  RH  048%=      5-min Rain = 0
KRO1 250242Z 05007KT 16/05 A3005 RMK A01 T01620053  RH  048%=      5-min Rain = 0
KRO1 250243Z 05007KT 16/05 A3005 RMK A01 T01620053  RH  048%=      5-min Rain = 0
KRO1 250244Z 05007KT 16/05 A3005 RMK A01 T01630054  RH  049%=      5-min Rain = 0
KRO1 250245Z 05007KT 16/06 A3005 RMK A01 T01630055  RH  049%=      5-min Rain = 0
KRO1 250246Z 06007KT 16/06 A3005 RMK A01 T01620055  RH  049%=      5-min Rain = 0
KRO1 250247Z 06007KT 16/06 A3005 RMK A01 T01620055  RH  049%=      5-min Rain = 0
KRO1 250248Z 06007KT 16/06 A3005 RMK A01 T01610055  RH  049%=      5-min Rain = 0
KRO1 250249Z 06007KT 16/06 A3005 RMK A01 T01610055  RH  049%=      5-min Rain = 0
KRO1 250250Z 06007KT 16/06 A3005 RMK A01 T01600055  RH  050%=      5-min Rain = 0
KRO1 250251Z 06007KT 16/06 A3005 RMK A01 T01600056  RH  050%=      5-min Rain = 0
KRO1 250252Z 05007KT 16/06 A3005 RMK A01 T01600057  RH  050%=      5-min Rain = 0
KRO1 250253Z 05007KT 16/06 A3006 RMK A01 T01600057  RH  050%=      5-min Rain = 0
KRO1 250254Z 05007KT 16/06 A3006 RMK A01 T01600056  RH  050%=      5-min Rain = 0
KRO1 250255Z 05007KT 16/06 A3006 RMK A01 T01600057  RH  050%=      5-min Rain = 0
KRO1 250256Z 04008KT 16/06 A3006 RMK A01 T01600058  RH  051%=      5-min Rain = 0
KRO1 250257Z 05008KT 16/06 A3006 RMK A01 T01600058  RH  051%=      5-min Rain = 0
KRO1 250258Z 05008KT 16/06 A3006 RMK A01 T01600059  RH  051%=      5-min Rain = 0
KRO1 250259Z 05008KT 16/06 A3006 RMK A01 T01600059  RH  051%=      5-min Rain = 0
KRO1 250300Z 06008KT 16/06 A3006 RMK A01 T01600059  RH  051%=      5-min Rain = 0
KRO1 250301Z 06008KT 16/06 A3006 RMK A01 T01590059  RH  051%=      5-min Rain = 0
KRO1 250302Z 06008KT 16/06 A3006 RMK A01 T01590060  RH  052%=      5-min Rain = 0
KRO1 250303Z 06007KT 16/06 A3006 RMK A01 T01580060  RH  052%=      5-min Rain = 0
KRO1 250304Z 06007KT 16/06 A3006 RMK A01 T01570058  RH  052%=      5-min Rain = 0
KRO1 250305Z 06007KT 16/06 A3006 RMK A01 T01550055  RH  051%=      5-min Rain = 0
KRO1 250306Z 06007KT 15/06 A3006 RMK A01 T01530056  RH  052%=      5-min Rain = 0
KRO1 250307Z 05007KT 15/06 A3006 RMK A01 T01520056  RH  053%=      5-min Rain = 0
KRO1 250308Z 05007KT 15/06 A3006 RMK A01 T01520057  RH  053%=      5-min Rain = 0
KRO1 250309Z 06007KT 15/06 A3006 RMK A01 T01520057  RH  053%=      5-min Rain = 0
KRO1 250310Z 06007KT 15/06 A3006 RMK A01 T01530058  RH  053%=      5-min Rain = 0
KRO1 250311Z 06007KT 15/06 A3006 RMK A01 T01530059  RH  053%=      5-min Rain = 0
KRO1 250312Z 06007KT 15/06 A3007 RMK A01 T01540059  RH  053%=      5-min Rain = 0
KRO1 250313Z 07007KT 15/06 A3007 RMK A01 T01530059  RH  053%=      5-min Rain = 0
KRO1 250314Z 07007KT 15/06 A3007 RMK A01 T01530058  RH  053%=      5-min Rain = 0
KRO1 250315Z 07007KT 15/06 A3007 RMK A01 T01520057  RH  053%=      5-min Rain = 0
KRO1 250316Z 07007KT 15/06 A3007 RMK A01 T01510057  RH  053%=      5-min Rain = 0
KRO1 250317Z 06007KT 15/06 A3007 RMK A01 T01510058  RH  054%=      5-min Rain = 0
KRO1 250318Z 07007KT 15/06 A3007 RMK A01 T01510058  RH  054%=      5-min Rain = 0
KRO1 250319Z 07007KT 15/06 A3007 RMK A01 T01500058  RH  054%=      5-min Rain = 0
KRO1 250320Z 07007KT 15/06 A3007 RMK A01 T01490057  RH  054%=      5-min Rain = 0
KRO1 250321Z 07007KT 15/06 A3007 RMK A01 T01490057  RH  054%=      5-min Rain = 0
KRO1 250322Z 07006KT 15/06 A3007 RMK A01 T01490058  RH  054%=      5-min Rain = 0
KRO1 250323Z 07006KT 15/06 A3007 RMK A01 T01490057  RH  054%=      5-min Rain = 0
KRO1 250324Z 07006KT 15/06 A3007 RMK A01 T01490058  RH  054%=      5-min Rain = 0
KRO1 250325Z 06005KT 15/06 A3007 RMK A01 T01490058  RH  054%=      5-min Rain = 0
KRO1 250326Z 07005KT 15/06 A3007 RMK A01 T01490058  RH  054%=      5-min Rain = 0
KRO1 250327Z 07005KT 15/06 A3008 RMK A01 T01490059  RH  055%=      5-min Rain = 0
KRO1 250328Z 07005KT 15/06 A3008 RMK A01 T01490059  RH  055%=      5-min Rain = 0
KRO1 250329Z 07005KT 15/06 A3008 RMK A01 T01480057  RH  054%=      5-min Rain = 0
KRO1 250330Z 08005KT 15/06 A3008 RMK A01 T01480058  RH  055%=      5-min Rain = 0
KRO1 250331Z 08004KT 15/06 A3008 RMK A01 T01480062  RH  056%=      5-min Rain = 0
KRO1 250332Z 09004KT 15/06 A3008 RMK A01 T01480064  RH  057%=      5-min Rain = 0
KRO1 250333Z 09004KT 15/06 A3008 RMK A01 T01480064  RH  057%=      5-min Rain = 0
KRO1 250334Z 09004KT 15/06 A3008 RMK A01 T01480064  RH  057%=      5-min Rain = 0
KRO1 250335Z 09004KT 15/06 A3008 RMK A01 T01490063  RH  057%=      5-min Rain = 0
KRO1 250336Z 09005KT 15/06 A3008 RMK A01 T01490062  RH  056%=      5-min Rain = 0
KRO1 250337Z 09005KT 15/06 A3008 RMK A01 T01490063  RH  056%=      5-min Rain = 0
KRO1 250338Z 09005KT 15/06 A3008 RMK A01 T01480063  RH  057%=      5-min Rain = 0
KRO1 250339Z 10005KT 15/06 A3008 RMK A01 T01480064  RH  057%=      5-min Rain = 0
KRO1 250340Z 10005KT 15/06 A3008 RMK A01 T01480064  RH  057%=      5-min Rain = 0
KRO1 250341Z 10005KT 15/07 A3008 RMK A01 T01470065  RH  058%=      5-min Rain = 0
KRO1 250342Z 10005KT 15/07 A3008 RMK A01 T01460065  RH  058%=      5-min Rain = 0
KRO1 250343Z 09005KT 15/07 A3008 RMK A01 T01460065  RH  058%=      5-min Rain = 0
KRO1 250344Z 09004KT 15/07 A3008 RMK A01 T01460065  RH  058%=      5-min Rain = 0
KRO1 250345Z 10004KT 15/07 A3008 RMK A01 T01460065  RH  058%=      5-min Rain = 0
KRO1 250346Z 09005KT 15/07 A3008 RMK A01 T01470065  RH  058%=      5-min Rain = 0
KRO1 250347Z 10005KT 15/07 A3008 RMK A01 T01470066  RH  058%=      5-min Rain = 0
KRO1 250348Z 10005KT 15/07 A3008 RMK A01 T01470066  RH  058%=      5-min Rain = 0
KRO1 250349Z 09006KT 15/07 A3008 RMK A01 T01470066  RH  058%=      5-min Rain = 0
KRO1 250350Z 09006KT 15/07 A3008 RMK A01 T01460065  RH  058%=      5-min Rain = 0
KRO1 250351Z 09005KT 15/07 A3008 RMK A01 T01460065  RH  058%=      5-min Rain = 0
KRO1 250352Z 08005KT 15/06 A3008 RMK A01 T01460064  RH  058%=      5-min Rain = 0
KRO1 250353Z 08005KT 15/06 A3008 RMK A01 T01450063  RH  058%=      5-min Rain = 0
KRO1 250354Z 08005KT 14/06 A3008 RMK A01 T01440062  RH  058%=      5-min Rain = 0
KRO1 250355Z 08005KT 14/06 A3008 RMK A01 T01430062  RH  058%=      5-min Rain = 0
KRO1 250356Z 08005KT 14/06 A3008 RMK A01 T01430063  RH  059%=      5-min Rain = 0
KRO1 250357Z 08005KT 14/06 A3008 RMK A01 T01430063  RH  059%=      5-min Rain = 0
KRO1 250358Z 08006KT 14/06 A3008 RMK A01 T01420063  RH  059%=      5-min Rain = 0
KRO1 250359Z 08006KT 14/07 A3008 RMK A01 T01430065  RH  060%=      5-min Rain = 0
KRO1 250400Z 08006KT 14/07 A3008 RMK A01 T01430066  RH  060%=      5-min Rain = 0
KRO1 250401Z 08005KT 14/07 A3008 RMK A01 T01430065  RH  060%=      5-min Rain = 0
KRO1 250402Z 08005KT 14/07 A3008 RMK A01 T01430066  RH  060%=      5-min Rain = 0
KRO1 250403Z 08005KT 14/07 A3009 RMK A01 T01420066  RH  060%=      5-min Rain = 0
KRO1 250404Z 08005KT 14/07 A3009 RMK A01 T01420066  RH  060%=      5-min Rain = 0
KRO1 250405Z 08005KT 14/06 A3009 RMK A01 T01410063  RH  059%=      5-min Rain = 0
KRO1 250406Z 08004KT 14/06 A3009 RMK A01 T01400061  RH  059%=      5-min Rain = 0
KRO1 250407Z 08004KT 14/06 A3009 RMK A01 T01380061  RH  060%=      5-min Rain = 0
KRO1 250408Z 08005KT 14/06 A3008 RMK A01 T01380062  RH  060%=      5-min Rain = 0
KRO1 250409Z 08005KT 14/06 A3008 RMK A01 T01370063  RH  061%=      5-min Rain = 0
KRO1 250410Z 08005KT 14/06 A3009 RMK A01 T01370064  RH  061%=      5-min Rain = 0
KRO1 250411Z 08005KT 14/06 A3009 RMK A01 T01370064  RH  061%=      5-min Rain = 0
KRO1 250412Z 08005KT 14/06 A3009 RMK A01 T01370063  RH  061%=      5-min Rain = 0
KRO1 250413Z 08005KT 14/06 A3009 RMK A01 T01370062  RH  060%=      5-min Rain = 0
KRO1 250414Z 08005KT 14/06 A3009 RMK A01 T01370061  RH  060%=      5-min Rain = 0
KRO1 250415Z 09005KT 14/06 A3009 RMK A01 T01360061  RH  060%=      5-min Rain = 0
KRO1 250416Z 09005KT 14/06 A3009 RMK A01 T01360061  RH  061%=      5-min Rain = 0
KRO1 250417Z 09005KT 14/06 A3009 RMK A01 T01360062  RH  061%=      5-min Rain = 0
KRO1 250418Z 09005KT 14/06 A3009 RMK A01 T01360063  RH  062%=      5-min Rain = 0
KRO1 250419Z 09005KT 14/06 A3009 RMK A01 T01360064  RH  062%=      5-min Rain = 0
KRO1 250420Z 09005KT 14/07 A3009 RMK A01 T01360066  RH  062%=      5-min Rain = 0
KRO1 250421Z 09004KT 14/07 A3009 RMK A01 T01370066  RH  062%=      5-min Rain = 0
KRO1 250422Z 08004KT 14/07 A3009 RMK A01 T01370065  RH  062%=      5-min Rain = 0
KRO1 250423Z 08004KT 14/06 A3009 RMK A01 T01360062  RH  061%=      5-min Rain = 0
KRO1 250424Z 08004KT 14/06 A3009 RMK A01 T01350059  RH  060%=      5-min Rain = 0
KRO1 250425Z 08004KT 13/06 A3009 RMK A01 T01330057  RH  060%=      5-min Rain = 0
KRO1 250426Z 09004KT 13/06 A3009 RMK A01 T01320059  RH  061%=      5-min Rain = 0
KRO1 250427Z 10005KT 13/06 A3009 RMK A01 T01320062  RH  062%=      5-min Rain = 0
KRO1 250428Z 10005KT 13/07 A3009 RMK A01 T01320065  RH  064%=      5-min Rain = 0
KRO1 250429Z 10005KT 13/07 A3009 RMK A01 T01340067  RH  064%=      5-min Rain = 0
KRO1 250430Z 09004KT 14/07 A3009 RMK A01 T01350067  RH  064%=      5-min Rain = 0
KRO1 250431Z 09004KT 14/07 A3009 RMK A01 T01360067  RH  063%=      5-min Rain = 0
KRO1 250432Z 09004KT 14/07 A3009 RMK A01 T01350066  RH  063%=      5-min Rain = 0
KRO1 250433Z 08004KT 14/07 A3009 RMK A01 T01350065  RH  062%=      5-min Rain = 0
KRO1 250434Z 09004KT 13/06 A3009 RMK A01 T01340060  RH  061%=      5-min Rain = 0
KRO1 250435Z 09004KT 13/06 A3009 RMK A01 T01320060  RH  061%=      5-min Rain = 0
KRO1 250436Z 09004KT 13/06 A3009 RMK A01 T01320063  RH  063%=      5-min Rain = 0
KRO1 250437Z 10004KT 13/06 A3009 RMK A01 T01310064  RH  064%=      5-min Rain = 0
KRO1 250438Z 10004KT 13/06 A3009 RMK A01 T01310064  RH  064%=      5-min Rain = 0
KRO1 250439Z 10004KT 13/06 A3009 RMK A01 T01310064  RH  064%=      5-min Rain = 0
KRO1 250440Z 09004KT 13/06 A3009 RMK A01 T01310064  RH  064%=      5-min Rain = 0
KRO1 250441Z 08004KT 13/06 A3009 RMK A01 T01310063  RH  063%=      5-min Rain = 0
KRO1 250442Z 08003KT 13/06 A3009 RMK A01 T01300058  RH  061%=      5-min Rain = 0
KRO1 250443Z 07004KT 13/06 A3009 RMK A01 T01290058  RH  062%=      5-min Rain = 0
KRO1 250444Z 08004KT 13/06 A3009 RMK A01 T01280061  RH  064%=      5-min Rain = 0
KRO1 250445Z 09004KT 13/06 A3009 RMK A01 T01280063  RH  065%=      5-min Rain = 0
KRO1 250446Z 10004KT 13/07 A3009 RMK A01 T01280065  RH  065%=      5-min Rain = 0
KRO1 250447Z 10005KT 13/07 A3009 RMK A01 T01290067  RH  066%=      5-min Rain = 0
KRO1 250448Z 10005KT 13/07 A3009 RMK A01 T01310068  RH  066%=      5-min Rain = 0
KRO1 250449Z 10005KT 13/07 A3009 RMK A01 T01320070  RH  066%=      5-min Rain = 0
KRO1 250450Z 09005KT 13/07 A3009 RMK A01 T01340069  RH  065%=      5-min Rain = 0
KRO1 250451Z 08005KT 14/07 A3009 RMK A01 T01350068  RH  064%=      5-min Rain = 0
KRO1 250452Z 08004KT 14/07 A3009 RMK A01 T01350067  RH  064%=      5-min Rain = 0
KRO1 250453Z 07004KT 13/06 A3009 RMK A01 T01330063  RH  062%=      5-min Rain = 0
KRO1 250454Z 07004KT 13/06 A3009 RMK A01 T01310060  RH  062%=      5-min Rain = 0
KRO1 250455Z 07004KT 13/06 A3009 RMK A01 T01300061  RH  063%=      5-min Rain = 0
KRO1 250456Z 07004KT 13/06 A3009 RMK A01 T01300062  RH  064%=      5-min Rain = 0
KRO1 250457Z 08004KT 13/07 A3009 RMK A01 T01300066  RH  065%=      5-min Rain = 0
KRO1 250458Z 08005KT 13/07 A3009 RMK A01 T01310067  RH  065%=      5-min Rain = 0
KRO1 250459Z 09005KT 13/07 A3009 RMK A01 T01330068  RH  065%=      5-min Rain = 0

Page generated in 0.0339 seconds.